Inspections with COVID-19 related Violations

OSHA Coronavirus-Related Inspections with Violations as of Monday, October 31, 2022, with Total Current Penalties of $7,885,073.
Establishment Name City State Inspection Number Date Citation Issued Total Initial Penalty Standards Cited
Northwest Ohio Urgent Care LLC TOLEDO OH 1597152 10/31/2022 14,504 1910.132(a);1910.132(d)(2);1910.132(f)(3)(iii);1910.134(d)(1)(i)
LSREF Golden Ops 26 (CO), LLC NORTHGLENN CO 1599456 10/27/2022 11,603 1910.134(e)(1);1910.134(f)(2);1910.134(k)(1)(ii)
East Side Jersey Dairy, Inc. BISMARCK ND 1625687 10/27/2022 8,702 1910.212(a)(1)
ManorCare Health Services WEST DEPTFORD NJ 1475471 10/26/2022 12,000 1904.4(a)
ManorCare Health Services WEST DEPTFORD NJ 1475560 10/26/2022 12,000 1904.4(a)
Franklin Avenue Healthcare, Inc. BERTHOUD CO 1600190 10/20/2022 1,000 1904.29(b)(3)
Riddle Memorial Hospital MEDIA PA 1590880 10/18/2022 11,523 1910.134(f)(2);1910.134(m)(1);1910.134(m)(2)(ii)
Rohit Patel, Dentistry BDS P.C. MOUNT VERNON NY 1590250 10/14/2022 3,108 1910.134(c)(1)
Temple University Hospital – Episcopal Campus PHILADELPHIA PA 1589588 10/13/2022 10,360 1910.134(f)(2)
Trinity Health Mid-Atlantic-Mercy Fitzgerald Hospital DARBY PA 1589978 10/13/2022 1,163 1910.134(m)(1);1910.134(m)(2)(ii)
HILLCREST COMMONS EXTENDED CARE PITTSFIELD MA 1600197 10/13/2022 26,104 1910.134(e)(1)
Harris Villa, Inc. WESTFIELD WI 1599083 10/12/2022 0 1910.134(a)(2)
Thomas Jefferson University Hospital, Jefferson Hospital for Neurosciences PHILADELPHIA PA 1588420 10/6/2022 10,360 1910.134(f)(2)
Athena Health Care Systems RI LLC WOONSOCKET RI 1589334 10/6/2022 72,510 1910.134(f)(2)
Barr Street Corporation CANONSBURG PA 1613360 10/6/2022 0 1910.134(e)(6)(i)
EH Home Health of the Mid Atlantic, LLC PITTSBURGH PA 1609951 10/3/2022 0 1910.134(f)(2)
Penn Hospice Inc EBENSBURG PA 1612021 9/30/2022 3,315 1910.134(c)(1);1910.134(e)(1);1910.134(f)(2);1910.134(k)(3)
735 Putnam Pike Operations LLC GREENVILLE RI 1587835 9/29/2022 14,502 1910.134(f)(5)
The Jewish Home For The Elderly of Fairfield County, Inc. BRIDGEPORT CT 1588065 9/27/2022 125,340 1910.134(e)(1);1910.134(f)(2)
Geriatric Services, Inc. TEANECK NJ 1588244 9/21/2022 4,351 1910.134(f)(2)
Life Care Centers of America, Inc. GREELEY CO 1588619 9/21/2022 1,000 1904.40(a)
Providence Point PITTSBURGH PA 1595885 9/21/2022 0 1910.502(q)(2)(ii)(A)
ESL Management LLC SUDBURY MA 1589314 9/19/2022 14,502 1910.134(e)(1);1910.134(f)(2);1910.134(k)(1)
Steward Healthcare-Saint Elizabeth's Medical Center BRIGHTON MA 1595303 9/19/2022 14,502 1910.134(f)(2)
LUTHER HOME OF MERCY WILLISTON OH 1597144 9/19/2022 14,502 1910.134(c)(1);1910.134(f)(2);1910.134(l)(1)
Life Care Centers of America, Inc. FORT MORGAN CO 1588604 9/16/2022 1,000 1904.40(a)
Heartland of Boynton Beach FL, LLC BOYNTON BEACH FL 1586281 9/15/2022 1,761 1904.29(b)(4)
AMEDISYS HOLDING, L.L.C. CARROLLTON GA 1584696 9/14/2022 0 1910.134(c)(1)(i);1910.134(m)(2)(i)
Lakewood Healthcare, Inc. DENVER CO 1587174 9/14/2022 4,351 1910.134(e)(1)
Berkshire MA SNF, LLC SANDISFIELD MA 1598071 9/14/2022 8,629 1910.134(f)(2)
Forest Street LTC, LLLP DENVER CO 1598897 9/14/2022 5,221 1910.134(f)(2)
Greenfield Management Services, Inc. FORT COLLINS CO 1600186 9/14/2022 1,000 1904.29(b)(3);1904.7(b)(3)
Silverstone Memory Care, Inc. APPLETON WI 1603677 9/13/2022 7,252 1910.134(a)(2)
Majestic Care of Cedar Village LLC MASON OH 1607310 9/13/2022 74,582 1904.40(a);1910.134(c)(1);1910.134(e)(1);1910.134(f)(2);1910.134(k)(1)
Ingraham Manor Nursing Home BRISTOL CT 1584356 9/12/2022 2,072 1904.4(a);1910.502(q)(2)(ii)
The Bucktail Medical Center RENOVO PA 1585154 9/9/2022 12,763 1910.1200(e)(1);1910.132(d)(2);1910.134(f)(2);1910.502(q)(2)(ii)
Barrow Healthcare LLC LITTLE ROCK AR 1588434 9/9/2022 22,333 1910.134(e)(1);1910.134(f)(2)
Concierge Park, LP HOUSTON TX 1616525 9/8/2022 0 1910.134(f)(2)
Rest Haven Operating LLC SCHUYLKILL HAVEN PA 1587950 9/6/2022 7,458 1910.132(d)(2);1910.134(c)(1);1910.134(e)(1);1910.502(q)(2)(ii)(A)
Toledo Healthcare and Rehabilitation TOLEDO OH 1599356 9/6/2022 10,151 1910.134(f)(2)
Southern Winds Hospital LLC HIALEAH FL 1584926 9/2/2022 0 1910.134(e)(2)(ii);1910.134(e)(6)(i)
THE PLACE AT MARTINEZ, LLC AUGUSTA GA 1589436 9/1/2022 1,450 1904.41(a)(1)
BRYAN HEALTHCARE AND REHABILITATION CENTER LLC BRYAN OH 1590618 9/1/2022 13,052 1910.134(c)(1);1910.134(e)(1);1910.134(f)(2)
Life Care Center of Gwinnett LAWRENCEVILLE GA 1595185 9/1/2022 1,305 1904.41(a)(1)
Loyalhanna Care Center LATROBE PA 1600841 9/1/2022 0 1910.502(q)(2)(ii)(A)
Clara Maass Medical Center BELLEVILLE NJ 1583822 8/31/2022 14,502 1910.134(f)(2)
U.S. Public Health Service Indian Health Service Crownpoint Healthcare Facility CROWNPOINT NM 1599290 8/31/2022 0 1904.41(a)(1)
US Immigration and Customs Enforcement EL CENTRO CA 1606604 8/31/2022 0 1960.59(a)
Presence Central and Suburban Hospitals Network JOLIET IL 1589888 8/30/2022 0 1910.134(m)(2)(ii)
UHS of Westwood Pembroke PEMBROKE MA 1593867 8/29/2022 14,502 1910.134(e)(1);1910.134(f)(2)
Vicksburg Healthcare, LLC VICKSBURG MS 1595710 8/29/2022 45,579 1910.134(f)(2)
Signature Healthcare Brockton Hospital BROCKTON MA 1597431 8/29/2022 14,502 1910.134(f)(2)
HRI Hospital Inc BROOKLINE MA 1599619 8/29/2022 14,502 1910.134(e)(1)
The Meadows at Pottsville for Nursing and Rehabilitation Inc. POTTSVILLE PA 1589282 8/26/2022 1,628 1910.132(d)(2);1910.134(m)(2)(i)
Omni Manor, Inc. COLUMBIANA OH 1589791 8/26/2022 113,960 1910.134(f)(2);1910.134(l)(1)
Tlevay, Inc. TOLEDO OH 1589943 8/26/2022 7,133 1910.134(m)(2)(i)
Mahoning Valley Convalescent Home Inc. LEHIGHTON PA 1592413 8/26/2022 0 1910.132(d)(2);1910.502(q)(2)(ii)
PruittHealth - Macon, LLC MACON GA 1596726 8/26/2022 2,279 1904.41(a)(1)
Brookdale Senior Living, Inc. EXPORT PA 1607121 8/26/2022 10,359 1904.4(a);1910.134(e)(1);1910.134(f)(2);1910.134(k)(3)
ProMedica YORK PA 1590881 8/25/2022 2,072 1904.40(a);1910.502(q)(3)(iv)
Presence Life Connections JOLIET IL 1588401 8/24/2022 10,151 1910.134(e)(1);1910.134(f)(2);1910.134(m)(1)
Fair Haven Retirement Community, Inc. BIRMINGHAM AL 1591362 8/24/2022 0 1910.134(m)(1);1910.134(m)(2)(ii)
Haven Behavioral Hospital of Eastern PA READING PA 1599781 8/24/2022 5,594 1910.134(f)(1)
UPMC Asbury Heights PITTSBURGH PA 1586481 8/23/2022 0 1910.502(q)(2)(ii)(A)
Steward Good Samaritan Medical Center, Inc. BROCKTON MA 1590990 8/23/2022 1,761 1904.41(a)(1)
Jeffrey & Susan Brudnick Center for Living PEABODY MA 1589602 8/19/2022 8,287 1910.134(c);1910.134(e)(1)
Pittsfield Management Systems, Inc. PITTSFIELD MA 1593150 8/19/2022 13,052 1910.134(f)(2)
Guardian Elder Care at Taylor, LLC TAYLOR PA 1599546 8/19/2022 0 1910.134(f)(2)
Columbine Commons Health & Rehab LLC WINDSOR CO 1588550 8/18/2022 3,730 1904.40(a);1904.7(b)(3)
Buckeye Forest At Canton LLC CANTON OH 1595594 8/18/2022 0 1910.502(q)(2)(ii)(A)
U.S. Department of Veterans Affairs / Northport VA Medical Center NORTHPORT NY 1581820 8/17/2022 0 1910.134(f)(2)
Genesis Healthcare LLC HADLEY MA 1594738 8/17/2022 14,502 1910.134(e)(1);1910.134(f)(2)
Sarah Bush Lincoln Health Systems MATTOON IL 1595252 8/17/2022 8,287 1910.134(c)(1)(v);1910.134(f)(2)
Highland Springs LLC HIGHLAND HILLS OH 1595398 8/15/2022 0 1910.502(q)(2)(ii)(A)
Salem Community Hospital SALEM OH 1593805 8/11/2022 0 1910.502(q)(2)(ii)(A)
Orland Park Skilled Nursing Facility, LLC ORLAND PARK IL 1586450 8/5/2022 0 1910.134(m)(1)
Presbyterian Homes of Presbytery of Huntingdon HOLLIDAYSBURG PA 1589894 8/4/2022 0 1910.134(e)(6)(i)
Compass Group USA, Inc. ELGIN IL 1593871 8/4/2022 0 1910.134(e)(6)(i)(C)
Advanced Health and Education, LLC EATONTOWN NJ 1522230 8/1/2022 1,000 1910.134(c)(1)
Symphony Deerbrook LLC JOLIET IL 1585757 8/1/2022 10,151 1910.134(f)(2)
Lutheran Home WESTLAKE OH 1593850 8/1/2022 0 1910.502(q)(2)(ii)(A)
88 Clark Lane Operating, LLC WATERFORD CT 1585684 7/29/2022 0 1910.502(q)(2)(ii)(A)
Care HSL Belle Reve Opco LLC MILFORD PA 1591827 7/29/2022 5,801 1910.134(e)(1);1910.134(f)(2);1910.134(k)(3)
Berkshire Nursing & Rehab Center, LLC FOREST PARK IL 1592772 7/29/2022 13,052 1910.134(f)(2);1910.134(g)(1)(i)(A);1910.502(q)(2)(ii)(A)
Arbutus Park Manor JOHNSTOWN PA 1600940 7/29/2022 0 1910.502(q)(2)(ii)(A)
People Inc. BUFFALO NY 1599402 7/28/2022 10,360 1910.134(c);1910.134(e)(1);1910.134(f)(2);1910.134(k)(3)
First Choice Health Centers, Inc. VERNON CT 1575927 7/26/2022 890 1910.134(f)(2)
Kingsbrook Jewish Medical Center BROOKLYN NY 1577679 7/26/2022 6,215 1910.502(q)(3)(iii)
CHI Living Communities LLC PERRYSBURG OH 1594115 7/25/2022 13,052 1910.132(d)(2);1910.134(c)(1);1910.134(e)(1);1910.134(f)(2);1910.134(k)(1);1910.502(q)(2)(ii)(A)
U.S. BORDER PATROL - WELLTON STATION WELLTON AZ 1555730 7/22/2022 0 1904.4(a);1910.134(e)(1)
Saint Cloud SD Skilled Nursing Facility, LLC RAPID CITY SD 1584957 7/21/2022 8,702 1910.134(d)(1)(iv);1910.134(h)(2)(i);1910.134(k)
Life Care Centers of America Inc. WESTLAKE OH 1592164 7/21/2022 0 1910.502(q)(2)(ii)(A)
Christus St. Elizabeth Hospital BEAUMONT TX 1595239 7/19/2022 10,360 1910.134(f)(2)
US ORAL SURGERY MANAGEMENT, LLC / CENTRAL MASSACHUSETTS ORAL AND MAXILLOFACIAL SURGERY, P.C. LEOMINSTER MA 1580045 7/18/2022 5,801 1910.134(c)(1);1910.134(e)(1);1910.134(f)(2)
Holyoke Medical Center, Inc. HOLYOKE MA 1588935 7/15/2022 14,502 1910.134(f)(2);1910.134(g)(1)(i)(A)
Allied Universal COSHOCTON OH 1579872 7/14/2022 14,502 OSH ACT of 1970 Section (5)(a)(1)
Allied Universal COSHOCTON OH 1585006 7/14/2022 11,396 1904.39(a)(1)
Aspirus Eagle River Hospital & Clinics, Inc. EAGLE RIVER WI 1590859 7/14/2022 1,761 1904.29(b)(3)
MOUNTAIN GROVE NO. 2, INC. MOUNTAIN GROVE MO 1578755 7/12/2022 4,351 1910.134(g)(1)(i)(A)
Franciscan Alliance, Inc. OLYMPIA FIELDS IL 1585107 7/12/2022 14,502 1910.134(c)(1);1910.134(f)(2);1910.134(k)(5)
Elevate Care Niles, LLC NILES IL 1587029 7/11/2022 22,564 1904.41(a)(2);1910.134(e)(1);1910.134(f)(2)
U.S. Air Force - 60th Medical Group - David Grant Medical Center TRAVIS AFB CA 1585811 7/8/2022 0 1910.134(f)(2)
Helia Healthcare of Belleville, LLC dba Four Fountains Convalescent Center BELLEVILLE IL 1591366 7/8/2022 29,004 1910.134(e)(1);1910.134(f)(2)
UHS of Parkwood, Inc. OLIVE BRANCH MS 1592965 7/8/2022 6,340 1910.134(f)(2);1910.502(q)(2)(ii)(A)
Validus Senior Living Management Company, Llc SAINT PETERSBURG FL 1593088 7/8/2022 8,287 1910.134(c)(1);1910.134(e)(1);1910.134(f)(2)
Gateway Foundation, Inc. CHICAGO IL 1598899 7/8/2022 9,324 1910.134(c)(1);1910.134(e)(1);1910.134(f)(2)
Stearns Nursing and Rehabilitation Center LLC GRANITE CITY IL 1599313 7/8/2022 10,151 1910.134(f)(2)
Mohawk Valley Health System Rehabilitation & Nursing Center UTICA NY 1577060 7/6/2022 10,360 1904.39(a)(1);1904.4(a)
East Longmeadow Management Systems, Inc. EAST LONGMEADOW MA 1580985 7/6/2022 13,425 1910.134(f)(1);1910.134(f)(2);1910.134(m)(1);1910.134(m)(2)(ii)
Tutera Acquirers, Inc. HANNIBAL MO 1587858 7/6/2022 0 1904.40(a)
Country Lane Gardens Rehabilitation and Nursing Center THORNVILLE OH 1596860 7/6/2022 23,931 1910.134(f)(2);1910.134(k)(5)
Sacred Heart Health System, Inc. PENSACOLA FL 1583633 7/5/2022 8,287 1910.134(h)(2)
Riverside Manor Nursing & Rehabilitation Center NEWCOMERSTOWN OH 1588444 7/5/2022 0 1910.134(f)(2)
Shenandoah Heights Healthcare LLC SHENANDOAH PA 1585810 7/1/2022 24,612 1910.134(c)(1)(ix);1910.134(f)(2);1910.134(l)(1)
Coatesville Veterans Affairs Medical Center COATESVILLE PA 1575884 6/30/2022 0 1904.4(a)
PruittHealth - Brookhaven ATLANTA GA 1586140 6/29/2022 11,094 1910.134(f)(2);1910.134(m)(1);1910.134(m)(2)(ii)
SMNRC, L.P. SHENANDOAH PA 1589423 6/29/2022 6,340 1910.134(e)(1);1910.134(f)(2);1910.134(k)
Aperion Care Oak Lawn OAK LAWN IL 1592140 6/29/2022 0 1910.502(q)(2)(ii)(A)
The Palace Rehabilitation and Care Center MAPLE SHADE NJ 1573168 6/28/2022 10,151 1910.134(e)(1);1910.134(f)(1);1910.134(f)(2);1910.134(g)(1)(i)(A)
American Campus Communities Services, Inc. WINTER GARDEN FL 1570575 6/24/2022 1,163 1910.134(c)(2)(i)
Fairfield Medical Center, Fairfield Hospital, Fairfield Medical CTR PR LANCASTER OH 1590686 6/24/2022 10,360 1910.134(f)(2)
Jerome Home NEW BRITAIN CT 1597166 6/24/2022 1,761 1904.4(a)
St. Croix Regional Medical Center, Inc. SAINT CROIX FALLS WI 1597266 6/24/2022 4,195 1910.134(f)(2)
Pliant, LLC MCALESTER OK 1572452 6/23/2022 3,730 1904.4(a);1910.1020(e)(3)(i)
330 Franklin Turnpike Operations LLC RIDGEWOOD NJ 1576491 6/23/2022 10,151 1910.134(g)(1)(i)(A);1910.134(k)(5)(ii)
Knox Community Hospital MOUNT VERNON OH 1590349 6/23/2022 0 1910.502(q)(2)(ii)
Arbor Terrace San Jose LLC JACKSONVILLE FL 1582364 6/22/2022 6,164 1910.134(e)(1);1910.134(f)(2)
The Homeplace of Stanley, LLC. STANLEY WI 1591328 6/22/2022 7,252 1910.134(c)(1);1910.134(e)(1);1910.134(f)(2)
Highland Clarksburg Hospital CLARKSBURG WV 1600528 6/22/2022 11,188 1910.134(c)(1);1910.134(e)(1)
Green Oaks Nursing and Rehabilitation ARLINGTON TX 1585989 6/21/2022 1,865 1904.4(a)
Aveanna Healthcare WEXFORD PA 1571807 6/17/2022 0 1910.134(e)(2)(i);1910.134(f)(1)
LSS of Marycrest, LLC DENVER CO 1586618 6/17/2022 11,603 1910.134(e)(1);1910.134(f)(2)
Prairie Manor Nursing & Rehabilitation, LLC CHICAGO HEIGHTS IL 1594198 6/17/2022 13,052 1910.134(e)(1);1910.134(f)(2)
U.S. Department of Justice - Federal Bureau of Prisons (BOP) - FCI Mendota MENDOTA CA 1579778 6/16/2022 0 1910.134(f)(2)
Buckley Healthcare Center, LLC GREENFIELD MA 1584826 6/16/2022 7,458 1910.134(e)(1);1910.134(f)(2)
The South Suburban Council on Alcoholism and Substance Abuse HAZEL CREST IL 1593600 6/16/2022 7,252 1910.134(c)(1);1910.134(e)(1);1910.134(f)(2)
Naval Medical Center Portsmouth PORTSMOUTH VA 1589291 6/15/2022 0 1910.134(e)(7)(ii);1910.134(f)(2);1910.134(k)(5)
The Residence at Weinberg Village PITTSBURGH PA 1595262 6/15/2022 0 1910.502(q)(2)(ii)(A)
Avista Healthcare CHERRY HILL NJ 1472865 6/14/2022 9,000 1904.4(a)
VWB, LLC OMAHA NE 1589462 6/10/2022 3,315 1910.134(e)(1);1910.134(f)(1)
The Grove of St.Charles SAINT CHARLES IL 1592100 6/10/2022 5,801 1910.134(e)(6)(i)(C);1910.134(f)(2)
Charlesgate Nursing Center PROVIDENCE RI 1570459 6/9/2022 0 1910.134(e)(1);1910.134(f)(2)
The Classic at Hillcrest Greens ALTOONA WI 1588264 6/9/2022 4,754 1910.134(c)(1);1910.134(f)(1)
Superior Rehabilitation Center, LLC. SUPERIOR WI 1589723 6/9/2022 19,060 1904.4(a);1910.134(e)(1);1910.134(e)(6)(i);1910.134(f)(2)
VITAS Healthcare MOUNT LAUREL NJ 1573202 6/7/2022 16,574 1904.4(a);1910.134(e)(1);1910.134(f)(2);1910.134(m)(1);1910.134(m)(2)(ii)
Blanchester Healthcare, LLC BLANCHESTER OH 1592273 6/7/2022 8,702 1904.40(a);1910.134(f)(2)
Chicago Ridge Skilled Nursing Facility, LLC CHICAGO RIDGE IL 1589736 6/6/2022 9,324 1910.134(f)(2)
PHC - Cleveland Inc. CLEVELAND MS 1591997 6/6/2022 7,044 1910.134(f)(2);1910.502(q)(2)(ii)(A)
Pleasant Valley Manor, Inc. STROUDSBURG PA 1588856 6/3/2022 7,458 1910.134(c)(1);1910.134(e)(1);1910.134(f)(2)
South Suburban Rehabilitation Center, LLC HOMEWOOD IL 1592133 6/3/2022 9,324 1910.134(f)(2);1910.134(m)(2)(i)
Department of Veteran Affairs INDIANAPOLIS IN 1595814 6/3/2022 0 1904.29(a);1904.29(b)(3);1904.4(a);1910.134(c)(1)
Fastaff Travel Nursing MARGARETVILLE NY 1571181 6/2/2022 0 1910.134(e)(2)(ii)
Margaretville Nursing Home INC MARGARETVILLE NY 1571188 6/2/2022 0 1910.134(e)(2)(ii)
Seaboard Foods, LLC GUYMON OK 1571560 6/2/2022 21,000 1904.29(b)(1);1904.29(b)(3);1904.4(a)
Department of Veteran Affairs DBA Fort Wayne VA Medical Center FORT WAYNE IN 1598620 6/2/2022 0 1904.29(a);1904.32(a)(1)
Juniper Park Limited Parternship DENVER CO 1586614 5/27/2022 14,918 1910.134(e)(1);1910.134(f)(2)
Azura Beloit 2, LLC BELOIT WI 1589398 5/27/2022 24,240 1910.132(d)(1);1910.134(a)(1)
3102 Saint Charles Drive Operating Company, Inc. STEUBENVILLE OH 1591185 5/27/2022 22,789 1910.134(e)(1);1910.134(f)(2)
Beckett Springs Hospital WEST CHESTER OH 1589959 5/26/2022 10,360 1910.134(f)(2)
Birch Care Community, LLC AURORA CO 1567631 5/25/2022 0 1904.29(b)(8)
Natchez Hospital Company, LLC NATCHEZ MS 1584335 5/24/2022 7,044 1910.134(f)(2);1910.502(q)(2)(ii)(A)
Sentry-Brandon, Inc. BRANDON MS 1591175 5/24/2022 6,164 1910.134(f)(2);1910.502(q)(2)(ii)
HCF Management, Inc. GREENSBURG PA 1586816 5/18/2022 0 1910.134(e)(6);1910.134(e)(6)(i)(C)
Consolidated Group of Madison, Inc. MADISON FL 1585413 5/17/2022 13,052 1910.134(e)(1);1910.134(f)(2)
Meadowbrook Care Center CINCINNATI OH 1587197 5/17/2022 10,152 1904.29(b)(2);1904.4(a);1910.134(f)(2);1910.134(k)
Maria Joseph Living Care Center DAYTON OH 1590559 5/12/2022 20,718 1904.29(b)(2);1904.32(b)(6);1904.4(a);1910.134(f)(2)
Lakeland Nursing & Rehab, LLC JACKSON MS 1583812 5/11/2022 7,925 1910.134(f)(2);1910.502(q)(2)(ii)(A)
Comprehensive HealthCare Management Services, LLC BEAVER PA 1584480 5/9/2022 11,188 1910.134(c)(1);1910.134(d)(1)(ii)
BAYA POINTE NURSING AND REHABILITATION CENTER LAKE CITY FL 1585409 5/4/2022 10,151 1910.134(e)(1)
U.S. Department of Justice Federal Bureau of Prisons MARIANNA FL 1575861 5/2/2022 0 1910.134(e)(1);1910.134(f)(2)
April Enterprises DAYTON OH 1587567 4/29/2022 0 1910.134(m)(2)(i)
ConnectRN, Inc NAPOLEON OH 1574197 4/28/2022 14,502 1910.134(c)(1);1910.134(e)(1);1910.134(f)(2)
Scioto Community COLUMBUS OH 1586223 4/27/2022 0 1910.502(q)(2)(ii)(A)
Randall Residence of Centerville CENTERVILLE OH 1588060 4/27/2022 14,502 1910.132(d)(2);1910.134(c)(1);1910.134(e)(1);1910.134(f)(2)
Adena Health System CHILLICOTHE OH 1589337 4/27/2022 8,806 1910.134(f)(2)
Veterans Health Administration WHITE CITY OR 1569354 4/26/2022 0 1904.39(a)(2)
Guardian Elder Care at Uniontown, LLC. UNIONTOWN PA 1561551 4/25/2022 0 1910.502(c)(3);1910.502(n)(1)(ix)
Med1Care of Toledo LLC NAPOLEON OH 1573463 4/25/2022 14,502 1910.134(c)(1);1910.134(e)(1);1910.134(f)(2)
FreeCovidCare DECATUR IL 1574033 4/21/2022 29,004 1910.134(e)(1);1910.134(f)(2)
University of Cincinnati Medical Center, LLC CINCINNATI OH 1587667 4/21/2022 8,806 1910.134(f)(2)
Northbrook NH, LLC dba Deerfield Crossing at Northbrook NORTHBROOK IL 1583760 4/11/2022 0 1910.134(f)(2)
The Laurels of Mt. Vernon MOUNT VERNON OH 1584687 4/15/2022 14,504 1910.134(f)(2);1910.134(k)(5)
Res Care - Parkersburg Agency PARKERSBURG WV 1558609 4/14/2022 7,458 1910.134(c)(1);1910.134(e)(1)
Department of Veterans Affairs CINCINNATI OH 1585258 4/14/2022 0 1910.134(f)(2)
Amiel, LLC EL PASO TX 1579938 4/12/2022 1,450 1904.4(a)
PRAM Singing Woods TE LLC dba Spring Hills Singing Woods DAYTON OH 1586200 4/11/2022 37,295 1910.132(d)(2);1910.134(c)(1);1910.134(e)(1);1910.134(f)(1);1910.134(k)(1)
Northcrest Acres Nursing & Rehabilitation Center, LLC NAPOLEON OH 1568976 4/8/2022 11,601 1904.4(a);1910.134(c)(1);1910.134(e)(1);1910.134(e)(3)(i);1910.134(f)(2);1910.502(q)(2)(ii)(A);1910.502(r)(1)(i)
Jewish Hospital LLC CINCINNATI OH 1584810 4/8/2022 8,806 1910.134(f)(2)
Sonida Senior Living CANTON OH 1571286 4/6/2022 13,052 1910.132(d)(1);1910.134(e)(1);1910.134(f)(2);1910.134(k)(1)
Dedicated Nursing Associates, Inc. NAPOLEON OH 1573437 4/6/2022 13,052 1910.134(c)(1);1910.134(e)(1);1910.134(e)(3)(i);1910.134(f)(2)
Baptist Memorial Hospital-Booneville, Inc. BOONEVILLE MS 1557987 3/31/2022 8,806 1910.134(f)(2);1910.502(f)(2)(i);1910.502(q)(2)(ii)(A)
Armstrong Center for Medicine and Health, Inc. KITTANNING PA 1561920 3/31/2022 6,215 1910.134(e)(2)(i);1910.134(e)(3)(i);1910.134(e)(6)(i);1910.502(f)(2)(i)
Clare Propco LLC CHICAGO IL 1575035 3/30/2022 13,052 1910.134(f)(2);1910.134(m)(2)(i)(C)
Canon Medical Systems USA, Inc. HOUSTON TX 1557861 3/29/2022 10,360 1910.502(c)(1);1910.502(q)(2)(ii)
Champaign Urbana Nursing and Rehab, LP SAVOY IL 1571585 3/25/2022 10,151 1910.134(e)(1);1910.134(f)(2)
U.S. BORDER PATROL - WELLTON STATION WELLTON AZ 1555730 3/24/2022 0 1904.4(a);1910.134(e)(1);1910.134(f)(5);1910.134(g)(1)(i)(A);1960.9
U.S. Border Patrol YUMA AZ 1559190 3/24/2022 0 1904.4(a);1910.134(c)(1);1910.134(f)(2);1910.134(m)(2)(i);1960.9
DuPage Medical Group, Ltd. JOLIET IL 1567086 3/24/2022 14,502 1910.134(e)(1);1910.134(f)(2)
U.S. Immigration and Customs Enforcement DONNA TX 1559598 3/23/2022 0 1904.40(a);1910.132(d)(2);1910.134(c)(1)
U.S. Immigration and Customs Enforcement MISSION TX 1559609 3/23/2022 0 1904.40(a);1910.132(d)(2);1910.134(c)(1)
VA Northern California Healthcare System OAKLAND CA 1557473 3/22/2022 0 1904.4(a);1910.502(f)(1)(ii);1910.502(k)(1)(iii);1910.502(l)(3)(i)(B)
Baptist Medical Center - Leake, Inc. CARTHAGE MS 1558830 3/16/2022 10,360 1910.134(f)(2);1910.502(f)(2)(i);1910.502(q)(2)(ii)(A)
American Performance Polymers LLC COLEBROOK NH 1560294 3/15/2022 13,052 OSH ACT of 1970 Section (5)(a)(1)
Aveanna Healthcare AS, LLC CLERMONT FL 1555095 3/9/2022 1047 1910.502(f)(2)(i);1910.502(r)(1)(i)
U.S. Department of Veterans Affairs BALTIMORE MD 1552223 3/7/2022 0 1904.29(b)(1);1904.29(b)(2);1904.29(b)(3);1904.29(b)(7)(v);1910.134(f)(2);1910.134(k)(5);1910.134(m)(2)(ii);1910.502(c)(5);1910.502(f)(2)(i);1910.502(l)(3)(i)(A);1910.502(l)(5)(iii)(A);1910.502(n)(1)(ix);1910.502(q)(2)(ii)(A)
Autumn Pointe Assisted Living FORT CALHOUN NE 1574814 3/4/2022 10151 1910.134(e)(1);1910.134(f)(2)
Sweeny Community Hospital SWEENY TX 1554692 3/2/2022 20,742 1910.134(c)(1);1910.134(f)(2);1910.502(c)(1);1910.502(q)(2)(ii);1910.502(r)(1)(i)
Boa Vida Hospital of Aberdeen, MS, LLC ABERDEEN MS 1554924 3/2/2022 17612 1910.134(f)(2);1910.502(f)(2)(i);1910.502(l)(5)(iii)(A);1910.502(q)(2)(ii)(A)
U.S. Department of Veterans Affairs BALTIMORE MD 1552223 3/1/2022 0 1904.7(b)(3)
Guardian Elder Care at Waynesburg, LLC WAYNESBURG PA 1559508 3/1/2022 27970 1910.134(f)(2);1910.134(f)(5);1910.502(f)(2)(i);1910.502(i);1910.502(l)(4)(i);1910.502(l)(5)(iii)(A)
Grand Villa of Deerfield Beach DEERFIELD BEACH FL 1550719 2/28/2022 10,151 1910.134(a)(2);1910.502(f)(2)(i)
Veterans Health Administration, Bedford Health Care System BEDFORD MA 1555666 2/28/2022 0 1904.4(a);1910.134(a)(2);1910.134(f)(2);1910.502(h)(1);1910.502(l)(3)(i)(A);1910.502(r)(1)(i);1910.502(r)(ii)
The Verland Foundation, Inc. SEWICKLEY PA 1553608 2/25/2022 26,027 1904.7(a);1904.7(a);1910.134(d)(1)(ii);1910.134(f)(2);1910.134(m)(1);1910.502(d)(3);1910.502(f)(2)(i);1910.502(q)(2)(ii)(A)
1104 Welsh Road Operations LLC PHILADELPHIA PA 1549960 2/24/2022 1,047 1910.134(m)(2)(i);1910.502(q)(2)(ii)(A)
Homecare Holdings, LLC BRADENTON FL 1550667 2/24/2022 0 1910.134(e)(1);1910.134(f)(2)
UTGR, Inc. LINCOLN RI 1552634 2/24/2022 2,072 1904.4(a)
Southwest Airlines Co. BALTIMORE MD 1551900 2/23/2022 6,215 1904.39(a)(1)
Temple University Hospital, Inc. PHILADELPHIA PA 1552755 2/23/2022 1,163 1910.134(c)(1)(ii);1910.134(c)(1)(iii);1910.134(m)(2)(i)
Evangelical Manor PHILADELPHIA PA 1548243 2/17/2022 27,151 1910.134(e)(1);1910.134(e)(3)(i);1910.134(e)(5)(i);1910.134(f)(2);1910.134(m)(1);1910.134(m)(2)(i);1910.502(f)(2)(i);1910.502(q)(2)(ii)(A)
U.S. BORDER PATROL - Blythe Station BLYTHE CA 1556133 2/17/2022 0 1910.134(e)(1);1910.134(f)(2);1910.134(f)(5)
Aliceville Manor Nursing Home, Inc. ALICEVILLE AL 1550287 2/16/2022 1,233 1904.7(b)(3)
Gadsden Home Care Services, LLC GADSDEN AL 1551748 2/16/2022 0 1910.134(e)(4)(i);1910.502(q)(2)(ii)(A)
Jones County Nursing Home GRAY GA 1550007 2/15/2022 10,151 1910.134(f)(2);1910.134(m)(2)(i)(C);1910.502(f)(2)(i);1910.502(q)(2)(ii)
Uniontown Hospital UNIONTOWN PA 1553452 2/11/2022 6,215 1910.134(e)(2)(i);1910.134(e)(3)(i);1910.134(e)(6)(i);1910.502(f)(2)(i)
High Point Treatment Center NEW BEDFORD MA 1553620 2/10/2022 14,502 1910.134(c)(1);1910.134(d)(1)(ii);1910.134(e)(1);1910.134(f)(2)
Consulate Health Care of Vero Beach VERO BEACH FL 1549986 2/8/2022 13,052 1910.134(e)(1);1910.134(f)(2);1910.502(f)(2)(i)
Darling International, Inc. LEXINGTON NE 1556762 2/7/2022 14,502 1910.147(c)(7)(i)(B)
Tyrone Hospital TYRONE PA 1553773 2/4/2022 5,594 1910.134(e)(2)(i);1910.134(f)(2);1910.134(m)(1);1910.134(m)(2)(i);1910.502(c)(2);1910.502(c)(3);1910.502(f)(2)(i)
Doral Automotive Group LLC CUTLER BAY FL 1547234 2/4/2022 6,215 1904.39(a)(1)
Integrity Crescent Park Village LLC CRESTVIEW FL 1559753 2/4/2022 14,502 1910.134(e)(1);1910.134(f)(2);1910.134(k)(1);1910.502(f)(2)(i)
Venice Gardens LLC THONOTOSASSA FL 1546466 1/31/2022 0 1910.502(q)(2)(ii)
Saddle Shop Road Operations, LLC HILLTOP WV 1546624 1/31/2022 0 1910.134(m)(2)(i)
Vinylmax, LLC CLIFTON PARK NY 1546480 1/27/2022 2,072 1904.4(a)
U.S. Border Patrol-Brian A. Terry Border Patrol Station BISBEE AZ 1566065 1/26/2022 0 1910.134(f)(2);1910.134(g)(1)(i)(A)
Orlando Health South Lake Hospital CLERMONT FL 1547640 1/24/2022 24,862 1904.39(a)(2);1910.134(d)(1)(i);1910.134(f)(2);1910.502(f)(2)(i)
UHS of Savannah, L.L.C. SAVANNAH GA 1543247 1/20/2022 14,502 1910.134(c)(2)(ii);1910.134(e)(1)
Eye Associates of Valdosta Georgia, LLC VALDOSTA GA 1543666 1/20/2022 3,315 1910.502(d)(2)
UMass Memorial Medical Center, Inc. WORCESTER MA 1559741 1/20/2022 24,862 1910.134(f)(2);1910.134(g)(1)(i)(A)
Spectrum Health Systems, Inc. NORTH GRAFTON MA 1548247 1/18/2022 14,502 1910.132(d)(2);1910.134(c)(1)
Sanoh America MOUNT VERNON OH 1547175 1/14/2022 26,527 1904.39(a)(1);1904.4(a);OSH ACT of 1970 Section (5)(a)(1)
U.S. Immigration and Customs Enforcement HARLINGEN TX 1558134 1/14/2022 0 1904.39(a)(2)
Guthrie Robert Packer Hospital SAYRE PA 1549238 1/11/2022 8,777 1910.134(f)(2);1910.134(k)(5);1910.502(f)(2)(i)
The Meadows at East Mountain-Barre for Nursing and Rehabilitation LLC WILKES BARRE PA 1563084 1/11/2022 4,476 1910.134(e)(2)(i);1910.134(e)(4)(i);1910.502(f)(2)(i)
St. Mary's Medical Center, Inc HUNTINGTON WV 1546273 1/11/2022 25,358 1910.502(h)(1)
Hartford Healthcare-GoHealth Urgent Care, LLC WEST HARTFORD CT 1546149 1/10/2022 65,939 1910.132(d)(1)(i);1910.134(c)(1);1910.134(d)(1)(i);1910.134(e)(1);1910.134(f)(2);1910.502(c)(1);1910.502(c)(3);1910.502(c)(4)i;1910.502(d)(2);1910.502(f)(2)(i);1910.502(f)(5);1910.502(n)(1);1910.502(r)(ii)
CRAIG HOMECARE, INC. SAINT LOUIS MO 1552099 1/10/2022 13,653 1910.134(c)(1);1910.134(e)(1);1910.134(f)(2);1910.134(k)
Pittsburgh Mercy Garden View Manor Personal Care Home PITTSBURGH PA 1562559 1/6/2022 5,461 1910.134(c)(1);1910.134(e)(1);1910.134(f)(1);1910.502(f)(2)(i)
US BORDER PATROL-TUCSON SECTOR TUCSON AZ 1551382 12/30/2021 0 1904.39(a)(1);1904.7(a)
U.S. Customs and Border Protection SAN DIEGO CA 1556977 12/30/2021 0 1910.134(c)(1)(iv)
Morningside of Cullman, LLC CULLMAN AL 1539964 12/29/2021 0 1910.134(m)(1);1910.134(m)(2)(ii)
The Kroger CO ACWORTH GA 1549314 12/29/2021 14,078 1903.2(a)(1);1910.132(d)(1);1910.132(f)(1)
STAR FAMILY HEALTHCARE AND WELLNESS CENTER, LLC COLLEGE PARK GA 1547359 12/23/2021 5,596 1910.134(c)(1);1910.502(f)(2)(i)
Patriot Home Care, Inc. PHILADELPHIA PA 1538472 12/21/2021 29,259 1910.134(c)(1);1910.134(e)(1);1910.134(k)(1)
WellNow Urgent Care OSWEGO NY 1541601 12/21/2021 54,612 1910.134(f)(1);1910.134(f)(2);1910.502(c)(1);1910.502(f)(2)(i);1910.502(h)(1);1910.502(i);1910.502(n)(1)
WellNow Urgent Care ELMIRA NY 1545865 12/21/2021 54,612 1910.134(f)(2);1910.502(c)(1);1910.502(f)(2)(i);1910.502(h)(1);1910.502(i);1910.502(n)(1)
WellNow Urgent Care WATERTOWN NY 1545878 12/21/2021 54,612 1910.134(f)(2);1910.502(c)(1);1910.502(f)(2)(i);1910.502(h)(1);1910.502(i);1910.502(n)(1)
CRAIG HOMECARE, INC. SAINT LOUIS MO 1552099 12/21/2021 13,653 1910.134(c)(1);1910.134(e)(1);1910.134(f)(2);1910.134(k)
Genesis Healthcare LOGAN WV 1556853 12/21/2021 9,753 1904.39(a)(2)
Trumbull Regional Medical Center WARREN OH 1564129 12/21/2021 0 1910.502(c)(5);1910.502(n)(1)(xii)
Hillside Rehabilitation Hospital Inc. WARREN OH 1566332 12/21/2021 0 1910.502(l)(5)(iii)(A)
Hospice of Greater Chicago, LLC dba Sanctuary Hospice CHICAGO IL 1544104 12/20/2021 13,653 1910.134(c)(1);1910.134(e)(1);1910.134(f)(2)
Summit Behavioral Health BRIDGETON NJ 1546465 12/20/2021 28,671 1910.134(e)(1);1910.134(f)(2);1910.502(c)(5);1910.502(c)(7)(i);1910.502(f)(2)(i);1910.502(l)(3)(i)(A)
Hawthorne Ridge Inc. EAST GREENBUSH NY 1549966 12/20/2021 13,653 1910.134(e)(1);1910.134(f)(2);1910.134(k)(1);1910.502(f)(2)(i)
Legacy Healing and Treatment Services CHERRY HILL NJ 1551774 12/20/2021 9,753 1910.134(e)(1);1910.134(f)(2)
Broadstep Behavioral Health, Inc. WATERTOWN WI 1554296 12/20/2021 13,653 1910.134(f)(1);1910.502(f)(2)(i)
Midwest Division-Menorah Medical Center LLC OVERLAND PARK KS 1556432 12/20/2021 9,753 1910.134(g)(1)(iii);1910.134(k)(1)(iv);1910.502(f)(2)(i);1910.502(f)(3)(i)
Wells Nursing Home, Inc. JOHNSTOWN NY 1558404 12/20/2021 12,288 1910.134(f)(2);1910.502(f)(2)(i)
Ocean Care and Staffing, Inc. BRICK NJ 1538038 12/17/2021 49,152 1910.502(c)(3);1910.502(c)(7)(iii);1910.502(d)(2);1910.502(f)(1)(ii);1910.502(n)(1)
U.S. BORDER PATROL- YUMA SECTOR YUMA AZ 1544138 12/17/2021 0 1904.39(a)(1)
Galion Community Hospital GALION OH 1549670 12/17/2021 13,653 1910.134(c)(1);1910.134(e)(1);1910.134(e)(6)(i);1910.134(f)(2);1910.502(f)(2)(i);1910.502(i)
Sprenger Health Care Systems MASSILLON OH 1552637 12/17/2021 8,778 1910.134(f)(2);1910.502(f)(2)(i)
U.S. Dept of Veterans Affairs PHOENIX AZ 1555729 12/17/2021 0 1910.504(d)(3)(i)(B)
Copeland Oaks SEBRING OH 1556103 12/17/2021 12,288 1910.502(c)(2);1910.502(c)(4)i;1910.502(q)(2)(ii)
R&J Investments, Inc. AVON OH 1558052 12/17/2021 16,191 1904.29(b)(3);1904.39(a)(2);1910.134(f)(2);1910.502(f)(2)(i)
Welcome House Inc NORTH OLMSTED OH 1560231 12/17/2021 27,306 1910.134(d)(1)(ii);1910.134(e)(1);1910.134(k)(1);1910.502(c)(6);1910.502(f)(2)(i);1910.502(q)(2)(ii)
Veterans Health Administration, Oscoda VA Clinic OSCODA MI 1561936 12/17/2021 0 1910.502(h)(1)
Lincoln Prairie Behavioral Health Center SPRINGFIELD IL 1551157 12/16/2021 12,288 1910.134(f)(2)
2014 Health, LLC, dba Chicago Behavioral Hospital DES PLAINES IL 1558511 12/16/2021 1,095 1910.134(c)(1);1910.134(e)(1);1910.134(f)(2);1910.502(c)(2);1910.502(f)(1)(i);1910.504(d)(2)(i)
Veterans Health Administration, Wyoming CBOC WYOMING MI 1558615 12/16/2021 0 1910.132(d)(1)(i);1910.134(e)(1);1910.502(f)(2)(i)
Lakefront Skilled Nursing Facility, LLC CHICAGO IL 1559564 12/16/2021 9,948 1910.134(d)(1)(ii);1910.134(e)(1);1910.134(f)(2);1910.134(g)(1)(i)(B);1910.502(f)(2)(i)
Aperion Care Princeton, LLC PRINCETON IL 1562566 12/16/2021 13,654 1904.39(a)(1);1910.134(e)(1);1910.134(f)(2);1910.134(g)(1)(i)(A);1910.134(g)(1)(i)(B);1910.502(f)(2)(i)
ScanSTAT Technologies, LLC NAPERVILLE IL 1555066 12/15/2021 9,753 1910.502(h)(1);1910.502(i)
TSMM Management, LLC MARION OH 1556331 12/15/2021 27,306 1910.134(c)(1);1910.134(e)(1);1910.134(f)(2);1910.134(k)(1);1910.502(f)(2)(i);1910.502(k)(1)(iii)
Caregiver, Inc RIPLEY OH 1565439 12/15/2021 27,306 1910.134(d)(1)(ii);1910.502(f)(2)(i);1910.502(l)(5)(iii)(A)
Mount Carmel Behavioral Health LLC COLUMBUS OH 1565652 12/15/2021 40,959 1910.502(f)(1)(i);1910.502(i);1910.502(l)(4)(iii)(A)(1);1910.502(l)(4)(iii)(A)(2)
Waukegan Clinic Corp. WAUKEGAN IL 1554435 12/14/2021 15,604 1910.134(f)(2);1910.502(d)(2);1910.502(f)(2)(i)
Spring Creek Assisted Living GREEN SPRINGS OH 1557433 12/14/2021 24,576 1910.134(e)(1);1910.134(f)(2);1910.502(c)(3);1910.502(c)(4)i;1910.502(f)(2)(i);1910.502(n)(2)(iii)
Spring Creek Nursing and Rehab LLC GREEN SPRINGS OH 1557461 12/14/2021 24,576 1910.134(e)(1);1910.134(f)(2);1910.502(c)(3);1910.502(c)(4)i;1910.502(f)(2)(i)
Advocate Health and Hospitals Corporation dba Advocate Lutheran General Hospital PARK RIDGE IL 1560449 12/14/2021 17,554 1910.134(g)(1)(i)(B);1910.134(h)(2)(i);1910.502(d)(3);1910.502(f)(1)(i);1910.502(f)(1)(ii);1910.502(f)(2)(i)
LHC Group WELLINGTON OH 1566708 12/13/2021 0 1910.502(q)(2)(ii)(A)
Hannibal Clinic Operations LLC HANNIBAL MO 1542057 12/9/2021 13,653 1910.134(c)(1);1910.134(e)(1);1910.134(f)(2);1910.134(k)
Doctors Subacute Healthcare LLC PATERSON NJ 1542627 12/9/2021 0 1910.502(c)(2);1910.502(q)(2)(ii)(A)
DELLRIDGE HEALTH REHABILITATION CENTER, LLC PARAMUS NJ 1543225 12/9/2021 26,334 1910.502(c)(2);1910.502(i)
Pulse Medical Transportation Inc. WOODLAND PARK NJ 1544728 12/9/2021 0 1910.502(c)(2)
MedStar EMS LLC AUSTELL GA 1539428 12/7/2021 0 1910.132(d)(2);1910.134(c)(2)(i)
Life Care Center of Medina MEDINA OH 1554434 12/7/2021 0 1910.502(c)(1)
Seven Lakes MSL LLC LOVELAND CO 1561397 12/7/2021 9,557 1910.502(f)(2)(i)
Embassy Healthcare, Inc. DALTON OH 1552913 12/6/2021 15,604 1910.134(e)(1);1910.134(f)(2);1910.134(k)(1);1910.502(f)(2)(i)
Miller Holdings Takoda Inc FAIRFIELD OH 1549105 12/3/2021 9,557 1910.134(e)(1);1910.134(f)(2);1910.502(f)(2)(i)
U.S. Dept of Veterans Affairs SALISBURY NC 1551496 12/3/2021 0 1904.4(a);1910.502(h)(1);1910.502(l)(3)(i)(B)
SF CARNEGIE, LLC MELBOURNE FL 1542265 11/30/2021 13,274 1910.134(e)(1);1910.134(f)(2);1910.502(c)(3)
Legend Senior Living LLC PALM COAST FL 1544356 11/30/2021 8,290 1910.134(f)(2);1910.502(f)(2)(i)
Vicksburg Healthcare, LLC VICKSBURG MS 1548578 11/30/2021 12,288 1910.502(f)(2)(i)
Lifeshare Blood Center Beaumont BEAUMONT TX 1548149 11/26/2021 7,563 1910.502(d)(2)
Maplewood Mayflower Place SNF, LLC WEST YARMOUTH MA 1542956 11/24/2021 13,653 1910.134(c)(1);1910.134(e)(1);1910.134(f)(2);1910.502(f)(2)(i)
Midwest Covenant Home, Inc. STROMSBURG NE 1556420 11/24/2021 6,827 1910.134(f)(2)
Interim HealthCare SOMERSET PA 1533687 11/23/2021 5,851 1910.134(e)(2)(i);1910.134(e)(3)(i);1910.134(e)(6)(i);1910.502(f)(2)(i)
American EMS LLC DOUGLASVILLE GA 1533889 11/23/2021 0 1910.132(d)(2);1910.134(c)(2)(i)
BAPU 108 LLC COGAN STATION PA 1532485 11/22/2021 14,824 OSH ACT of 1970 Section (5)(a)(1)
Johnnie McDade Grocery MILLEDGEVILLE GA 1533330 11/22/2021 9,362 1910.212(a)(1);OSH ACT of 1970 Section (5)(a)(1)
Saint Alphonsus Regional Medical Center, Inc. BOISE ID 1554228 11/22/2021 14,630 1910.502(c)(4)i;1910.502(n)(2)(i)
Madison Park Healthcare HUNTINGTON WV 1555818 11/19/2021 1,366 1904.4(a)
Nanticoke Community Ambulance NANTICOKE PA 1560893 11/19/2021 1,989 1910.134(c)(1);1910.134(e)(2)(i);1910.134(m)(1);1910.134(m)(2)(ii)
Sun Valley Acres GLEN CAMPBELL PA 1533458 11/10/2021 2,340 1910.134(c)(1);1910.134(e)(1);1910.502(f)(2)(i)
WellAge GJ Employer LLC GRAND JUNCTION CO 1535233 11/10/2021 9,753 1910.134(e)(1);1910.134(f)(1)
Pocono Mountain Regional Emergency Medical Services COOLBAUGH TOWNSHIP PA 1558171 11/9/2021 3,481 1910.134(e)(2)(i);1910.134(e)(4)(i);1910.134(f)(1);1910.134(f)(2);1910.134(m)(2)(i)(E)
Safe Haven Home Care Inc. BROOKLYN NY 1530290 11/8/2021 0 1910.134(c)(2)(i)
HHS Senior Living, LLC BATON ROUGE LA 1555944 11/8/2021 19,506 1910.134(c)(1);1910.134(e)(1);1910.134(f)(2);1910.502(c)(1)
Country House III LINCOLN NE 1551851 11/4/2021 9,753 1910.134(c)(1);1910.134(e)(1);1910.134(f)(2)
Trans-Med Ambulance, Inc. LUZERNE PA 1552031 11/4/2021 4,476 1910.134(e)(2)(i);1910.134(e)(4)(i)
LifeShare Blood Centers ALEXANDRIA LA 1535489 11/3/2021 13,653 OSH ACT of 1970 Section (5)(a)(1)
Maplewood at Darien, LLC DARIEN CT 1529349 11/1/2021 9,557 1910.134(c)(1);1910.134(e)(1);1910.134(f)(2)
ALLIANCE HC 11 LLC ANDOVER NJ 1523605 10/29/2021 88,745 1910.134(e)(1);1910.134(f)(2);1910.134(k)(1)
Towne Staffing LLC ANDOVER NJ 1544417 10/29/2021 13,653 1910.134(c)(1);1910.134(e)(1);1910.134(f)(2);1910.134(k)(1)
St. James Place of Baton Rouge BATON ROUGE LA 1547104 10/29/2021 9,753 1904.4(a);1910.134(c)(1);1910.134(d)(1)(ii);1910.134(e)(1);1910.134(f)(2);1910.502(l)(5)(iii)(B)
New Jersey Addiction Treatment Center LLC d/b/a Sunrise House LAFAYETTE NJ 1528565 10/26/2021 27,033 1910.134(a)(2)
U.S. Department of Veterans Affairs TUCSON AZ 1549852 10/26/2021 0 1904.4(a);1910.502(l)(3)(i)(A);1910.502(l)(3)(i)(B);1910.502(r)(ii)
U.S. Department of Veterans Affairs TUCSON AZ 1555967 10/26/2021 0 1910.502(j)(2)(i);1910.502(l)(3)(i)(A);1910.502(l)(3)(i)(B)
Clark Volunteer Emergency Squad, Inc. CLARK NJ 1534594 10/22/2021 8,581 1910.134(m)(1)
OR Ops, Inc EL DORADO AR 1526968 10/21/2021 9,557 1910.134(e)(1);1910.134(g)(1)(i)(A)
Golden Hill Nursing and Rehab, LP NEW CASTLE PA 1542735 10/21/2021 4,973 1910.134(e)(1);1910.134(f)(2);1910.502(c)(3);1910.502(f)(2)(i);1910.502(q)(2)(ii)(A)
HCF Management, Inc. GREENSBURG PA 1550644 10/21/2021 9,753 1910.502(f)(1)(ii);1910.502(q)(2)(ii)(A)
Buckman's, Inc. POTTSTOWN PA 1528699 10/19/2021 27,306 OSH ACT of 1970 Section (5)(a)(1)
Pennsylvania In-Home Partners JOHNSTOWN PA 1526206 10/15/2021 5,266 1910.134(e)(2)(i);1910.134(e)(3)(i);1910.134(e)(6)(i)(C);1910.502(f)(2)(i)
AMITA Health Alexian Brothers Medical Center ELK GROVE VILLAGE IL 1549905 10/14/2021 60,465 1910.502(c)(4)i;1910.502(c)(4)ii;1910.502(c)(5);1910.502(f)(1)(i);1910.502(h)(1);1910.502(i);1910.502(l)(4)(iii)(A)(1);1910.502(l)(4)(iii)(A)(2);1910.502(l)(5)(iii)(A);1910.502(q)(2)(ii)(A)
Embassy of Ivy Hill, LLC WYNDMOOR PA 1541945 10/13/2021 21,885 1910.134(c)(1);1910.502(c)(1);1910.502(c)(2);1910.502(f)(2)(i);1910.502(i);1910.502(o)(1)(i)
Amston Supply, Inc. CALEDONIA WI 1531843 10/12/2021 9,557 OSH ACT of 1970 Section (5)(a)(1)
Laureate Kankakee Operations, LLC BOURBONNAIS IL 1528492 10/6/2021 4,096 1910.134(e)(1)
Harrington Park Health & Rehabilitation, LLC AUGUSTA GA 1529080 10/6/2021 13,653 1910.134(e)(1);1910.134(f)(2)
West Suburban Nursing and Rehabilitation Center, LLC BLOOMINGDALE IL 1544665 10/6/2021 83,675 1910.134(e)(1);1910.134(f)(2);1910.134(g)(1)(i)(A);1910.134(g)(1)(i)(B);1910.134(k)(1)(i);1910.502(c)(4)i;1910.502(c)(6);1910.502(h)(1);1910.502(i);1910.502(n)(2)(iii)
Generations at Neighbors, LLC BYRON IL 1546867 10/6/2021 38,620 1910.134(g)(1)(i)(B);1910.502(c)(4)ii;1910.502(c)(7)(i);1910.502(h)(1);1910.502(i);1910.502(k)(1)(iii)
Independent Living Association, Inc. BROOKLYN NY 1523237 10/4/2021 0 1910.134(c)(2)(i)
Fred Loya Insurance Agency, Inc. DENVER CO 1528139 10/1/2021 23,406 OSH ACT of 1970 Section (5)(a)(1)
Diversified Assessment & Therapy Services KENOVA WV 1531549 9/30/2021 11,703 1910.134(c)(1);1910.134(c)(1)(i)
DuBois Continuum of Care Community, LLC DUBOIS PA 1539683 9/30/2021 4,476 1910.134(e)(1)
Healthcare Services Group, Inc. CHICAGO IL 1539715 9/30/2021 29,255 1910.134(c)(1);1910.134(e)(1);1910.134(f)(2)
Coastal Palma Real , CANTEX MATHIS TX 1533047 9/27/2021 5,461 1910.134(e)(1)
American Biltrite, Inc. MOORESTOWN NJ 1523722 9/24/2021 6,827 1904.39(a)(1)
Greenwich Investors Cedar Grove Owner, LLC PARKERSBURG WV 1538260 9/22/2021 15,604 1910.134(e)(1);1910.134(f)(2)
Think Whole Person Healthcare - Aksarben OMAHA NE 1546684 9/21/2021 0 1910.502(c)(1)
Sacred Heart Home Health, Inc. CORPUS CHRISTI TX 1548811 9/20/2021 0 1910.134(c)(1)
Pelenti Group LLC WASHINGTON DC 1521854 9/17/2021 0 1910.1200(g)(1)
Bureau of Indian Education TUBA CITY AZ 1546996 9/8/2021 0 1910.134(c)(1);1960.66(b)
Norwich Operating Company NORWICH NY 1512236 9/3/2021 8,193 1910.134(f)(2)
The Haven at North Hills PITTSBURGH PA 1529438 9/2/2021 4,096 1910.134(e)(1);1910.502(f)(2)(i)
BNV Homecare Agency, Inc. BROOKLYN NY 1527357 9/1/2021 13,653 1910.134(a)(1)
John Brooks Recovery Center MAYS LANDING NJ 1516922 8/31/2021 12,288 1910.134(c)(1);1910.134(e)(1);1910.134(f)(2)
U.S. POSTAL SERVICE FAIRFAX VA 1521391 8/31/2021 1,951 1904.4(a)
Federal Bureau of Prisons HONOLULU HI 1521666 8/31/2021 0 1910.134(a)(2);1910.134(f)(2);1910.134(m)(2)(i);1960.8(a)
UPS Freight Services, Inc. LONDONDERRY NH 1523167 8/31/2021 15,604 OSH ACT of 1970 Section (5)(a)(1)
Coastal Palma Real , CANTEX MATHIS TX 1533047 8/27/2021 5,461 1910.134(e)(1)
Trinity Living Center, LP GROVE CITY PA 1535966 8/27/2021 4,476 1910.134(e)(1);1910.134(f)(2)
Blue Hills Therapeutics Inc FORESTDALE MA 1532585 8/25/2021 9,557 1910.134(c)(1);1910.134(e)(1);1910.134(f)(2);1910.134(k)(1)
Advanced Health and Education, LLC EATONTOWN NJ 1522230 8/23/2021 6,241 1904.4(a);1910.134(c)(1);1910.134(d)(1)(ii);1910.134(e)(1);1910.134(f)(2);1910.134(k)(1)
Heritage Gardens Rehabilitation & Healthcare CARROLLTON TX 1526731 8/23/2021 6,827 1910.134(e)(1);1910.134(f)(2)
HCSG Staff Leasing Solutions LLC BURLINGTON NJ 1527769 8/23/2021 1,951 1904.4(a)
KVC Hospitals Kansas City KANSAS CITY KS 1528702 8/23/2021 13,653 1910.134(a)(2)
Amity Hospice DALLAS TX 1534212 8/23/2021 6,827 1910.134(c)(1);1910.134(e)(1);1910.134(f)(5)
Wesley Partners Senior Living LLC SULPHUR SPRINGS TX 1535685 8/23/2021 6,827 1910.134(c)(1);1910.134(e)(1);1910.134(f)(2)
Our Lady of Lourdes Memorial Hospital, Inc. BINGHAMTON NY 1509747 8/20/2021 9,753 1910.134(f)(2)
AMA Health Holdings, LLC TINTON FALLS NJ 1520938 8/20/2021 10,923 1904.4(a);OSH ACT of 1970 Section (5)(a)(1)
Generations at Regency, LLC NILES IL 1523671 8/20/2021 14,044 1910.134(e)(1);1910.134(f)(2)
Atlas Healthcare PENNSAUKEN NJ 1515204 8/18/2021 12,288 1910.134(e)(1);1910.134(f)(2)
Niagara Falls Memorial Medical Center NIAGARA FALLS NY 1514935 8/17/2021 7,802 1910.134(c)(1);1910.134(c)(3);1910.134(k)(1)
Healthcare Services Group PENNSAUKEN NJ 1532582 8/17/2021 0 1910.134(e)(1);1910.134(f)(2)
Catholic Charities of the Archdioces of Washington, Inc WASHINGTON DC 1520854 8/16/2021 7,315 1904.39(a)(1)
U.S. Department of Justice - Federal Bureau of Prisons (Leavenworth) LEAVENWORTH KS 1516025 8/13/2021 0 1960.59(a)
THE ESTATES OF PERRYVILLE, LLC PERRYVILLE MO 1532139 8/13/2021 0 1910.134(e)(2)(i)
REM Wisconsin II, Inc. MILWAUKEE WI 1516401 8/11/2021 4,973 1910.134(c)(1);1910.134(e)(1)
Blue Harbor Senior Living SHREVEPORT LA 1528979 8/10/2021 1,366 1904.29(b)(2);1904.40(a)
Petersen Health Junction, LLC CANTON IL 1532351 8/10/2021 13,653 1910.134(c)(1)
Heights Healthcare Company, LLC LONGMONT CO 1532807 8/10/2021 17,555 1910.134(e)(3)(i);1910.134(f)(2);1910.134(k)
ERAMET MARIETTA INC. MARIETTA OH 1521107 8/9/2021 14,044 1904.4(a);OSH ACT of 1970 Section (5)(a)(1)
Albany Medical Center Hospital ALBANY NY 1515419 8/5/2021 13,653 1910.134(a)(2)
SSC Retama McAllen MCALLEN TX 1529336 8/4/2021 4,096 1910.134(e)(1)
Virtua Willingboro Hospital WILLINGBORO NJ 1515990 8/3/2021 1,951 1904.4(a)
The Greenberg Group, Inc. HEWLETT NY 1518709 8/3/2021 4,096 OSH ACT of 1970 Section (5)(a)(1)
Wyoming Valley Motors, Inc. LARKSVILLE PA 1527307 8/3/2021 7,462 1904.4(a)
Westchester Care at Home dba Visiting Nurse Service in Westchester at Home WHITE PLAINS NY 1517891 8/2/2021 19,506 1910.134(e)(1);1910.134(f)(2)
Raceland Manor Nursing Home, Inc. LAROSE LA 1529460 8/2/2021 1,161 1904.41(a)(2)
Blackburn's Physicians Pharmacy, Inc. TARENTUM PA 1520881 7/30/2021 9,557 OSH ACT of 1970 Section (5)(a)(1)
Madison Hotel Properties, LLC MADISON GA 1531145 7/30/2021 1,755 1910.1200(e)(1);1910.1200(g)(8);1910.1200(h)(1)
Atlantic Health System POMPTON PLAINS NJ 1508295 7/27/2021 16,699 1904.4(a);1910.134(d)(1)(ii);1910.134(f)(2);1910.134(m)(2)(i)(C)
Franciscan Sisters of the Atonement, Inc. GARRISON NY 1511826 7/27/2021 28,672 1910.134(c)(1);1910.134(e)(1);1910.134(f)(2)
AccentCare of New York GARRISON NY 1515387 7/27/2021 19,504 1910.134(c)(1);1910.134(e)(1);1910.134(f)(2)
Family Home Health Care, Inc. GARRISON NY 1515428 7/27/2021 19,504 1910.134(c)(1);1910.134(e)(1);1910.134(f)(2)
HCF Management, Inc. BRADFORD PA 1532192 7/27/2021 4,973 1910.134(c)(1);1910.134(e)(3)(i)
Presence Central and Suburban Hospitals Network AURORA IL 1514199 7/26/2021 9,753 OSH ACT of 1970 Section (5)(a)(1)
GEM Rehab PT, OT, SLP, PLLC SYRACUSE NY 1518452 7/26/2021 12,288 1910.134(c)(1);1910.134(e)(1);1910.134(f)(1);1910.134(f)(2)
Central Solutions Staffing SYRACUSE NY 1518908 7/26/2021 5,851 1910.134(c)(1);1910.134(e)(1)
Reliant Emergency Room, LLC. CORPUS CHRISTI TX 1532587 7/26/2021 3,901 1910.134(c)(1)
Guardian Elder Care at Clarion, LLC CLARION PA 1535531 7/26/2021 0 1910.134(e)(6)(i)
VDRNC, LLC SYRACUSE NY 1518419 7/25/2021 13,653 1910.134(e)(1);1910.134(f)(2)
Lakewood Resource and Referral Center Inc. LAKEWOOD NJ 1510653 7/23/2021 27,3064 1910.134(e)(1);1910.134(f)(2)
Heritage Operating Associates, LLC UTICA NY 1511552 7/23/2021 13,653 1910.134(e)(1);1910.134(f)(2);1910.134(k)(1)
Encore Rehabilitation Services, LLC PHILADELPHIA PA 1511725 7/23/2021 16,699 1904.40(a);1910.134(f)(2);1910.134(m)(2)(i)
Mayfair Operator, LLC PHILADELPHIA PA 1511728 7/23/2021 27,318 1904.40(a);1910.134(e)(1);1910.134(e)(2)(i);1910.134(e)(3)(i);1910.134(f)(2);1910.134(k)(1)(iv);1910.134(m)(2)(i)
Trinity Health of New England HARTFORD CT 1517663 7/23/2021 15,311 1904.4(a);1910.134(f)(2)
Hi Nabor Supermarket, LLC BATON ROUGE LA 1533925 7/23/2021 1,366 1904.4(a)
Defense Commissary Agency (DECA) VIRGINIA BEACH VA 1538425 7/23/2021 0 1910.1200(e)(1)(i);1910.1200(f)(6)(ii);1910.1200(g)(8);1910.132(d)(1);1910.133(a)(1);1910.151(c)
Homecare Therapies LLC MANALAPAN NJ 1540234 7/23/2021 13,653 1910.134(e)(1);1910.134(f)(2)
Raise the Bottom Training and Counseling Services, LLC BOISE IN 1521998 7/22/2021 4,642 1910.132(d)(2);1910.134(c)(1);1910.134(e)(1);1910.134(f)(1)
Management & Training Corporation CHICOPEE MA 1516026 7/21/2021 13,653 1910.132(d)(2);1910.134(c)(1);1910.134(e)(1);1910.134(f)(2);1910.134(k)(1)
U.S. Dept of Veterans Affairs GILBERT AZ 1516739 7/20/2021 0 1910.134(d)(1)(ii);1910.134(e)(6)(i)(A);1910.134(g)(1)(ii)
McCrite Plaza at Briarcliff, LLC NORTH KANSAS CITY MO 1518021 7/20/2021 12288 1910.134(c)(1);1910.134(e)(1);1910.134(f)(2)
Good Shepherd Rehabilitation Network BETHLEHEM PA 1523738 7/20/2021 1,658 1904.4(a)
Tutera Acquirers, Inc. HANNIBAL MO 1520585 7/19/2021 9,557 1910.134(e)(1);1910.134(f)(2);1910.134(k)(1)
Phoenix Indian Medical Center PHOENIX AZ 1523779 7/16/2021 0 1910.134(f)(2)
Texan Nursing & Rehab-Gonzales GONZALES TX 1538305 7/16/2021 8,192 1910.134(c)(1)
GRNC Operating, LLC GHENT NY 1514453 7/15/2021 13,653 1910.134(e)(1);1910.134(f)(2);1910.134(k)(1)
CLR Carthage Center LLC CARTHAGE NY 1524248 7/15/2021 21,066 1904.39(a)(1);1904.4(a);1904.40(a);1910.134(c)(1);1910.134(d)(1)(ii);1910.134(e)(1);1910.134(f)(1);1910.134(f)(2);1910.134(k)(1)
BSD Care Brookhaven LLC EAST ORANGE NJ 1526420 7/15/2021 13,653 1910.134(c)(1);1910.134(e)(1);1910.134(f)(2);1910.134(k)(3)
MedStar Washington Hospital Center WASHINGTON DC 1509823 7/13/2021 17,945 1904.29(b)(2);1904.29(b)(7)(v);1904.29(b)(8);1904.41(a)(1);1910.134(e)(1);1910.134(f)(2);1910.134(g)(1)(i)(A);1910.134(k)(1)
Colonnade Senior Development, LLC dba The Colonnade Senior Living O FALLON IL 1511227 7/13/2021 12,288 1910.134(c)(1);1910.134(e)(1);1910.134(f)(2);1910.134(k)(1)
Hackensack Meridian Health Nursing & Rehabilitation - Shrewsbury SHREWSBURY NJ 1515264 7/13/2021 11,704 1904.39(a)(1);1904.4(a)
Little Flower Manor Nursing Home DARBY PA 1520588 7/13/2021 8,778 1910.134(e)(2)(ii)
RSRNC, LLC CASTLETON NY 1521252 7/13/2021 0 1910.134(m)(1);1910.134(m)(2)(ii)
SRZ OP BENTONVIEW, LLC MONETT MO 1512946 7/9/2021 38,228 1910.134(c)(1);1910.134(e)(1);1910.134(f)(2);1910.134(k)(1)
Phoebe Home, Inc ALLENTOWN PA 1516690 7/9/2021 13,653 1910.134(e)(1);1910.134(f)(2)
Fort Payne Hospital Corporation FORT PAYNE AL 1509563 7/8/2021 13,653 1910.134(c)(1)(vii);1910.134(e)(6)(i);1910.134(m)(2)(i)(B);1910.134(m)(2)(i)(C)
JPAM MANAGEMENT & CONSULTING, INC. SAINT LOUIS MO 1516237 7/8/2021 9,557 1910.134(c)(1);1910.134(e)(1);1910.134(f)(2);1910.134(k)(1)
The Residence of Lakeridge TOMS RIVER NJ 1518403 7/8/2021 15,604 1904.4(a);1910.134(c)(1);1910.134(e)(1);1910.134(f)(2)
Sayre Health Care Center, LLC SAYRE PA 1519257 7/8/2021 23,601 1904.4(a);1910.134(e)(1);1910.134(f)(2);1910.134(k)(1);1910.134(k)(1)(i);1910.134(k)(1)(v)
Lifespire, Inc. MOUNT VERNON NY 1511036 7/7/2021 15,604 1904.4(a);1910.134(c)(1);1910.134(d)(1)(ii);1910.134(e)(1);1910.134(f)(2);1910.134(k)(1)(iv)
Self Health Care & Rehab Center, Inc. HUEYTOWN AL 1512019 7/7/2021 9,557 1910.134(e)(1);1910.134(f)(2)
Valley View Manor Nursing Home NORWICH NY 1521802 7/7/2021 8,192 1910.134(f)(1)
Atrium Windows and Doors DALLAS TX 1510464 7/6/2021 12,874 1904.39(a)(1);1904.4(a)
Harbor House of Jackson JACKSON MS 1510853 7/6/2021 6,827 1904.39(a)(1)
Westborough Behavioral Healthcare Hospital, LLC WESTBOROUGH MA 1527259 7/6/2021 14,044 1904.4(a);1910.132(d)(2);1910.134(a)(2)
RCHP - Florence, LLC FLORENCE AL 1509490 7/2/2021 13,653 1910.134(c)(1);1910.134(e)(2)(ii);1910.134(m)(1);1910.134(m)(2)(i)(B)
Carlinville Rehabilitation and Health Care Center, LLC CARLINVILLE IL 1513563 7/2/2021 9,557 1910.134(e)(6)(i);1910.134(f)(2)
Stetson School, Inc/Seven Hills Foundation, Inc. BARRE MA 1513995 7/2/2021 0 1910.132(d)(2)
Hospice Source WEST CHESTER OH 1520279 7/2/2021 12,288 1910.134(c)(1);1910.134(e)(1);1910.134(k)(1)
West Wharton County Hospital District CORPUS CHRISTI TX 1528105 7/2/2021 767 1910.134(e)(1);1910.134(f)(2)
ADC Of America Inc DANBURY CT 1509264 7/1/2021 0 1910.1030(c)(1)(iv);1910.134(c)(2)(i)
Physicians Ambulance Service Inc. CLEVELAND OH 1526773 7/1/2021 49,152 1910.134(c)(1);1910.134(e)(1);1910.134(f)(2);1910.134(k)(1)
Marshall Medical Center North ALBERTVILLE AL 1508474 6/29/2021 0 1910.134(m)(1)
Erie Homes For Children And Adults, Inc. ERIE PA 1527089 6/29/2021 4,973 1910.134(c)(1);1910.134(e)(1);1910.134(f)(2);1910.134(k)(1)
The Terraces at Seacrest Village LITTLE EGG HARBOR TWP NJ 1527827 6/29/2021 9,557 1910.134(c)(1);1910.134(e)(1);1910.134(f)(2)
Wallick Properties Midwest, LLC TOLEDO OH 1512564 6/28/2021 13,653 1910.134(c)(1);1910.134(e)(1);1910.134(f)(2)
REM Community Options, LLC BRIDGEPORT WV 1513474 6/28/2021 15,019 1904.4(a);1910.134(c)(1);1910.134(e)(1);1910.134(f)(2)
Evangelical Lutheran Good Samaritan Society - Syracuse SYRACUSE NE 1522597 6/28/2021 10,445 1910.134(e)(1);1910.134(f)(2)
The Pearl Nursing Center of Rochester ROCHESTER NY 1525413 6/28/2021 0 1910.134(e)(1);1910.134(f)(2);1910.134(k)(1)
Fairlead PORTSMOUTH VA 1525663 6/28/2021 1,658 1904.32(b)(6)
Sunbridge Gardendale Health Care Center, LLC GARDENDALE AL 1508135 6/23/2021 7,461 1910.134(e)(3)(i);1910.134(e)(6)(i)
OUR LADY OF LOURDES MEDICAL CENTER CAMDEN NJ 1509551 6/23/2021 2,146 1904.4(a)
St. Vincent's Medical Center, Inc. JACKSONVILLE FL 1514042 6/23/2021 8,290 1910.134(f)(2);1910.134(h)(1)
Heath Village Retirement Community HACKETTSTOWN NJ 1516098 6/23/2021 15,604 1904.4(a);1910.134(e)(1);1910.134(f)(2)
The Pearl Nursing Center of Rochester ROCHESTER NY 1519815 6/23/2021 7,022 1910.134(e)(1);1910.134(f)(2);1910.134(k)(1)
U.S. Department of Navy INDIAN HEAD MD 1508425 6/22/2021 0 1904.29(b)(3);1904.39(a)(1);1910.134(f)(2)
Brainard Leasing LLC LYNDHURST OH 1512302 6/21/2021 12,288 1910.134(e)(1);1910.134(f)(2);1910.134(k)(1)
Confidence Management Systems SEWELL NJ 1516983 6/21/2021 13,653 1910.134(e)(1);1910.134(f)(2)
Advanced Subacute Rehabilitation Center SEWELL NJ 1519822 6/21/2021 9,557 1910.134(e)(1);1910.134(f)(2)
Fall River Jewish Home Inc. FALL RIVER MA 1523188 6/21/2021 10,923 1904.4(a);1910.134(e)(1);1910.134(f)(2)
U.S. Air Force - 60th Medical Group - David Grant Medical Center TRAVIS AFB CA 1523750 6/21/2021 0 1910.134(f)(2)
Corning Center for Rehabilitation & Health Care CORNING NY 1501663 6/17/2021 12,288 1910.134(c)(1)(ii);1910.134(d)(1)(ii);1910.134(e)(1);1910.134(f)(2)
Diversicare of Big Springs, LLC HUNTSVILLE AL 1511038 6/17/2021 13,653 1910.134(e)(1);1910.134(f)(2)
Jan-Care of Tri-State, Inc. HUNTINGTON WV 1511304 6/17/2021 13,653 1910.134(c)(1)
Maplewood Nursing & Rehabilitation Center PHILADELPHIA PA 1515396 6/17/2021 19,310 1904.4(a);1904.5(a);1910.134(k)(1)
RCHP-Florence, LLC MUSCLE SHOALS AL 1507208 6/16/2021 13,653 1910.134(c)(1);1910.134(e)(6)(i)
GREYSTONE HEALTH. ROCKLEDGE FL 1508359 6/16/2021 13,653 1910.134(c)(1);1910.134(e)(1);1910.134(f)(1);1910.134(k)(3)
Maybrook - P Denver OPCO, LLC STEVENS PA 1511328 6/16/2021 11,704 1904.7(a)
FIESER NURSING CENTER FENTON MO 1508520 6/15/2021 9,557 1910.134(c)(1);1910.134(e)(1);1910.134(f)(2);1910.134(k)
3001 Evesham Rd Operations LLC VOORHEES NJ 1512718 6/15/2021 0 1910.134(m)(1);1910.134(m)(2)(ii)
SCC Edinburg LLC EDINBURG TX 1528650 6/15/2021 8,192 1910.134(c)(1);1910.134(e)(1);1910.134(f)(2)
Seacrest Village LITTLE EGG HARBOR TWP NJ 1506477 6/14/2021 14,044 1904.4(a);1910.134(c)(1);1910.134(e)(1);1910.134(f)(2);1910.134(k)(1)
Gaspy Home Healthcare, Inc. HOUSTON TX 1526145 6/11/2021 9,557 1910.134(c)(1);1910.134(e)(1);1910.134(f)(2)
Lifepath Hospice Care Services SHREVEPORT LA 1528651 6/11/2021 780 1904.4(a)
Elara Caring ALEXANDRIA LA 1529383 6/11/2021 1,366 1904.4(a)
WELCOME NURSING HOME OBERLIN OH 1512181 6/10/2021 5,266 1910.134(m)(2)(i)
Oconto Falls Nursing and Rehab, LLC OCONTO FALLS WI 1512957 6/10/2021 27,306 1910.134(e)(1);1910.134(f)(2)
Nourison Industries Inc. CALHOUN GA 1505846 6/9/2021 155,159 1910.134(k)(6)
Nasoya Foods USA, LLC AYER MA 1517817 6/9/2021 14,748 1910.134(k)(6)
United States Department of Agriculture - Food Safety and Inspection Service SIOUX FALLS SD 1482567 6/8/2021 0 1960.8(a)
Defense Commissary Agency Norfolk NORFOLK VA 1519949 6/8/2021 0 1910.1200(e)(1)(i);1910.1200(f)(6)(ii);1910.1200(g)(8)
U.S. Department of Agriculture - Food Safety and Inspection Service (FSIS) Office of Management GREELEY CO 1485179 6/7/2021 0 1960.8(a)
LaSalle Southeast, LLC OCILLA GA 1505077 6/7/2021 4,973 1910.134(c)(1);1910.134(e)(1);1910.134(f)(2);1910.134(k)(1)
Ratliff Care Center CAPE GIRARDEAU MO 1510861 6/7/2021 9,557 1910.134(c)(1);1910.134(e)(1);1910.134(f)(2);1910.134(k)(1)
Kaiser Foundation Health Plan of the Mid-Atlantic States, Inc WASHINGTON DC 1505036 6/4/2021 0 1910.1200(h)(1)
Shenandoah Heights Healthcare LLC SHENANDOAH PA 1510852 6/4/2021 20,480 1904.39(a)(1);1910.134(c)(1);1910.134(e)(1);1910.134(f)(2);1910.134(k)(3)
Green Hill Inc WEST ORANGE NJ 1491531 6/3/2021 8,778 1910.134(e)(1);1910.134(f)(2);1910.134(k)(1)
Ronald Del Vecchio, D.D.S., P.C. VERNON CT 1505256 6/3/2021 5,852 1910.1030(c)(1)(i);1910.1030(d)(4)(ii)(E);1910.132(d)(1)
Cedar Grove Respiratory and Nursing Care Center WILLIAMSTOWN NJ 1506116 6/3/2021 12,288 1910.134(d)(1)(ii);1910.134(f)(2)
WILMOT CARE CENTER, INC. WILMOT SD 1508494 6/2/2021 5,803 1910.134(e)(1);1910.134(f)(1)
Montefiore New Rochelle Hospital NEW ROCHELLE NY 1504552 5/28/2021 13,653 1904.32(b)(3);1910.134(e)(1);1910.134(f)(1);1910.134(f)(2);1910.134(m)(2)(i)(B)
Genesis Eldercare Rehabilitation Services, Inc. GREENDALE WI 1504879 5/28/2021 5,851 1910.134(e)(1)
Options Unlimited, Inc. EAST GRANBY CT 1507902 5/28/2021 19,116 1904.29(b)(8);1904.30(a);1904.39(a)(1);1910.134(c)(1);1910.134(e)(1);1910.134(f)(2)
Pittsburg Care and Rehabilitation PITTSBURG KS 1509361 5/28/2021 13,653 1910.134(d)(1)(ii)
Touchpoint Support Services WOODRUFF WI 1514973 5/28/2021 0 1910.134(d)(3)(iii)(B)(2)
Trinity Services, Inc. WHEELING IL 1506363 5/27/2021 12,288 1910.134(a)(2);1910.134(d)(1)(ii)
Eger Health Care and Rehabilitation Center STATEN ISLAND NY 1513249 5/27/2021 15,604 1904.4(a);1910.134(d)(1)(ii);1910.134(e)(1);1910.134(f)(2)
Elevate Care Niles, LLC NILES IL 1510454 5/26/2021 22,822 1904.40(a)
El Dorado Care and Rehab EL DORADO KS 1512593 5/26/2021 37,059 1904.39(a)(2);1910.134(c)(1);1910.134(d)(1)(ii)
McKinley Health Care Center, LLC CANTON OH 1513420 5/26/2021 21,066 1910.134(c)(1);1910.134(e)(1);1910.134(f)(2)
U.S. Navy KAILUA HI 1524044 5/26/2021 0 1910.134(c)(1)
The Devereux Foundation NEW MILFORD CT 1510207 5/25/2021 13,653 1910.134(c)(1)
Shore Medical Center SOMERS POINT NJ 1508496 5/24/2021 13,653 1910.134(f)(2)
North Hill Needham, Inc. NEEDHAM MA 1509513 5/24/2021 13,653 1910.134(c)(1);1910.134(e)(1);1910.134(f)(2)
North Providence Urgent Care, Inc., North Providence Primary Care Associates, Inc., Center of New England Urgent Care, Inc. and Center of New England Primary Care, Inc. NORTH PROVIDENCE RI 1511619 5/24/2021 141,993 1910.134(a)(2);1910.134(c)(1);1910.134(e)(1);1910.134(f)(2);OSH ACT of 1970 Section (5)(a)(1)
SLR Health Services, LLC LITTLE ROCK AZ 1503697 5/21/2021 9,557 1910.134(c)(1);1910.134(e)(1);1910.134(f)(2)
Department of Veterans Affairs SALT LAKE CITY UT 1504402 5/20/2021 0 1910.134(e)(1);1910.134(e)(6)(i)
Sisters of Mary of the Presentation Health System FARGO ND 1507753 5/20/2021 0 1904.29(b)(3)
Diakon Senior Living Services CARLISLE PA 1506042 5/19/2021 6,827 1904.4(a);1910.134(f)(2)
MEDICAL EXPRESS AMBULANCE SERVICE, INC. SKOKIE IL 1507168 5/19/2021 12,288 1910.134(c)(1);1910.134(e)(1);1910.134(f)(2);1910.134(k)(1)
Guardian Foundation Inc./Naaman Creek Care Inc. GARNET VALLEY PA 1507368 5/19/2021 13,653 1910.134(e)(2)(i);1910.134(e)(3)(i)
MEDICAL EXPRESS AMBULANCE SERVICE, INC. FOREST PARK IL 1507620 5/19/2021 12,288 1910.134(c)(1);1910.134(e)(1);1910.134(f)(2);1910.134(k)(1)
MEDICAL EXPRESS AMBULANCE SERVICE, INC. CHICAGO IL 1507625 5/19/2021 12,288 1910.134(c)(1);1910.134(e)(1);1910.134(f)(2);1910.134(k)(1)
MARYHAVEN CENTER OF HOPE, INC. MILLER PLACE NY 1504452 5/18/2021 81,918 1910.134(a)(2);1910.134(c)(1)
Gillette Nursing Home Inc WARREN OH 1512083 5/18/2021 9,557 1910.134(f)(2)
Neodesha Care & Rehabilitation Center NEODESHA KS 1512276 5/18/2021 37,059 1904.39(a)(2);1910.134(d)(1)(ii);1910.134(e)(1);1910.134(k)(1)
Albright Care Services LEWISBURG PA 1517657 5/18/2021 13,653 1910.134(c)(1);1910.134(e)(1);1910.134(f)(2);1910.134(k)(3)
Pulse Medical Transportation Inc. EAST ORANGE NJ 1508536 5/17/2021 12,288 1910.134(c)(1);1910.134(e)(1);1910.134(k)(1)
Omni Manor, Inc. YOUNGSTOWN OH 1509975 5/17/2021 30,037 1910.134(f)(2)
SSC Laredo West Operating Co. LLC LAREDO TX 1503919 5/14/2021 12,288 1910.132(d)(2);1910.134(c)(1);1910.134(e)(1);1910.134(f)(2);1910.134(k)(1)
ABM INDUSTRY GROUPS LLC DULUTH GA 1505086 5/14/2021 4,476 1910.134(e)(1);1910.134(f)(2)
Avantor Fluid Handling, LLC. EATONTOWN NJ 1506282 5/14/2021 13,653 OSH ACT of 1970 Section (5)(a)(1)
Oaks Integrated Care MOUNT HOLLY NJ 1517991 5/14/2021 27,306 1910.134(c)(1);1910.134(d)(1)(ii);1910.134(e)(1);1910.134(f)(2);1910.134(k)(3);OSH ACT of 1970 Section (5)(a)(1)
Penske Truck Leasing Co., LP CRANSTON RI 1506469 5/13/2021 2,146 1904.29(b)(3)
Twilight Gardens Nursing & Rehabilitation NORWALK OH 1507351 5/13/2021 8,192 1910.134(e)(1);1910.134(f)(2)
Communicare, Inc. MASSILLON OH 1509140 5/13/2021 13,653 1910.134(m)(2)(i)(C)
Lancaster SNF Operations, LLC LINCOLN NE 1515398 5/13/2021 13,653 1910.134(e)(1);1910.134(f)(2)
Lake Hospital System, Inc. WILLOUGHBY OH 1516653 5/13/2021 13,653 1910.134(e)(1);1910.134(f)(2);1910.134(k)(3)
Duncan Regional Hospital, Inc. DUNCAN OK 1506059 5/12/2021 13,653 1910.134(c)(1)(iii);1910.134(c)(1)(v);1910.134(f)(1)
Pine View Nursing & Convalescent Home, Inc. HARRISVILLE WV 1512910 5/12/2021 8,193 1904.4(a);1910.134(c)(1);1910.134(e)(1);1910.134(f)(2)
LifeStream Behavioral Center, Inc. LEESBURG FL 1521174 5/11/2021 7,461 1904.39(a)(2)
Masonic Health System of Massachusetts, Inc. CHARLTON MA 1505637 5/10/2021 15,604 1904.4(a);1904.5(a);1910.132(d)(2);1910.134(e)(1);1910.134(f)(2);1910.134(k)(5)(i)
Kanawha Hospice Care, Inc. CHARLESTON WV 1509130 5/10/2021 13,653 1910.134(c)(1)(iii);1910.134(e)(2)(ii);1910.134(f)(2)
Park Ridge Care Center, Ltd. PARK RIDGE IL 1509935 5/10/2021 9,559 1904.40(a);1904.41(a)(2);1910.134(c)(1);1910.134(e)(1)
United Methodist Community Nursing Home OCEAN CITY NJ 1503524 5/7/2021 9,557 1910.134(f)(2)
FAIRHAVEN CHRISTIAN RETIREMENT CENTER ROCKFORD IL 1504388 5/7/2021 12,288 1910.134(c)(1);1910.134(e)(1);1910.134(f)(2)
Skilled Nursing Rehab Care Center BRYAN OH 1508256 5/6/2021 12,288 1910.134(f)(2)
INTERNAL REVENUE SERVICE OGDEN UT 1502176 5/5/2021 0 1910.1200(e)(1);1910.1200(g)(8);1910.1200(h)(1)
The Brooklyn Hospital Center BROOKLYN NY 1502814 5/5/2021 19,506 1910.134(f)(2);1910.134(g)(1)(i)(A)
Superior Rehabilitation Center, LLC. SUPERIOR WI 1504260 5/5/2021 14,044 1904.4(a);1910.134(d)(1)(i);1910.134(d)(1)(ii)
Hannibal Regional Healthcare System LA MO 1506263 5/5/2021 13,653 1910.134(c)(1);1910.134(f)(2)
Catholic Care Center BEL AIRE KS 1506764 5/5/2021 13,653 1910.134(e)(1);1910.134(f)(2)
MOUNTAIN GROVE NO. 2, INC. MOUNTAIN GROVE MO 1504251 5/4/2021 9,557 1910.134(e)(1);1910.134(f)(2)
Healthcare Services Group, Inc. MOUNTAIN GROVE MO 1504455 5/4/2021 13,653 1910.134(e)(1);1910.134(f)(2)
Silgan Dispensing Systems Thomaston Corporation WATERTOWN CT 1505735 5/4/2021 15,604 1904.4(a);OSH ACT of 1970 Section (5)(a)(1)
New Mark Care Center, Inc. KANSAS CITY MO 1507998 5/4/2021 12,288 1910.134(e)(1);1910.134(f)(2);1910.134(h)(2)(i)
TRANSPORTATION SECURITY ADMINISTRATION (TSA) DENVER CO 1503768 5/3/2021 0 1910.1200(h)(1)
Willard Healthcare LLC WILLARD OH 1505120 5/3/2021 9,557 1910.134(m)(2)(i)
Champaign Residential Services Inc. TOLEDO OH 1505286 5/3/2021 13,653 1910.134(a)(2)
Country Club Retirement Center LLC ASHTABULA OH 1506575 5/3/2021 9,557 1910.134(e)(3)(i)
Advanced Nursing Care Inc. DRACUT MA 1514375 5/3/2021 5,461 1910.134(e)(1);1910.134(f)(2)
Nurse Advice LLC LAWRENCE MA 1515359 5/3/2021 5,461 1910.134(e)(1)
ALL STAR STAFFING ANDOVER MA 1515362 5/3/2021 12,288 1910.134(e)(1);1910.134(f)(2)
Bluebird Medical Enterprises LLC NACOGDOCHES TX 1510893 4/30/2021 13,653 1910.134(c)(1);1910.134(e)(1);1910.134(f)(2);1910.134(g)(1)(i)(A)
HILLCREST COMMONS EXTENDED CARE PITTSFIELD MA 1507145 4/29/2021 13,653 1910.134(c)(1);1910.134(e)(1);1910.134(f)(2);1910.134(g)(1)(i)(A);1910.134(k)(1)
Michael E. DeBakey VA Medical Center HOUSTON TX 1505284 4/28/2021 0 1904.39(a)(1);1904.4(a)
Performance Healthcare Services WELLESLEY MA 1515137 4/28/2021 13,653 1910.134(e)(1);1910.134(f)(2)
BLACK CONSTRUCTION CORPORATION TAMUNING GU 1501769 4/27/2021 9,753 1904.39(a)(1)
Generations at Neighbors, LLC BYRON IL 1501967 4/27/2021 13,653 1910.134(c)(1);1910.134(e)(1);1910.134(f)(2);1910.134(k)(1)
Community Care Systems, Inc. CHICAGO IL 1506455 4/27/2021 9,753 1904.39(a)(1)
NJ Eye and Ear, LLC ENGLEWOOD NJ 1507557 4/27/2021 3,901 1910.134(c)(1);1910.134(f)(2);1910.134(k)(1)
U.S. Department of Justice - Bureau of Prison - Federal Correctional Institution - Mendota MENDOTA CA 1512619 4/27/2021 0 1910.134(c)(1)
US Department of Veterans Affairs - Las Vegas Medical Center NORTH LAS VEGAS NV 1524142 4/27/2021 0 1960.66(b)
Seventeenth Street Associates LLC HUNTINGTON WV 1501677 4/26/2021 12,288 1910.134(f)(2)
Midwest Warehouse and Distribution System, Inc. NAPERVILLE IL 1501560 4/22/2021 12,288 OSH ACT of 1970 Section (5)(a)(1)
Prime Healthcare Services - St. Michael's LLC NEWARK NJ 1502607 4/22/2021 2,190 1910.134(e)(6)(i);1910.134(m)(2)(i)
Network Management Constructors Corp. JOHNSTON RI 1500097 4/21/2021 767 1926.20(b)(2)
Life Care Centers Of America, Inc. HUMANSVILLE MO 1502456 4/21/2021 13,653 1910.134(e)(1);1910.134(f)(2)
Harrell Memorial Nursing Home dba MeadowBrook Acres CHARLESTON WV 1498792 4/20/2021 9,557 1910.134(c)(1);1910.134(e)(1);1910.134(f)(2)
U.S. POSTAL SERVICE WASHINGTON DC 1522210 4/20/2021 11,704 1904.39(a)(1);1904.4(a)
Inglis House PHILADELPHIA PA 1503206 4/19/2021 14,748 1910.134(e)(1);1910.134(f)(2);1910.134(k)(1);1910.134(m)(2)
Central Baptist Village NORRIDGE IL 1510176 4/19/2021 12,288 1910.134(e)(1);1910.134(f)(2)
Cedargate Healthcare Group, LLC POPLAR BLUFF MO 1501712 4/16/2021 9,557 1910.134(c)(1);1910.134(e)(1);1910.134(f)(2);1910.134(k)(1)
Virtua West Jersey Health System Inc. MOUNT HOLLY NJ 1503668 4/16/2021 15,799 1904.4(a);1910.134(f)(5);1910.134(m)(2)(i)(C)
VIRTUA- WEST JERSEY HEALTH SYSTEM, INC. VOORHEES NJ 1504241 4/16/2021 15,799 1904.4(a);1910.134(f)(2);1910.134(m)(1);1910.134(m)(2)(i)(C);1910.134(m)(2)(ii)
Somerset Dental Group, LLC GLASTONBURY CT 1505094 4/15/2021 3,979 1910.132(a);1910.134(d)(1)(i)
Bethany Nursing Home & Health Related Facility, Inc HORSEHEADS NY 1506462 4/15/2021 13,653 1910.134(e)(1);1910.134(f)(2)
Preferred Therapy Solutions LLC HORSEHEADS NY 1510039 4/15/2021 13,653 1910.134(c)(1);1910.134(e)(1);1910.134(f)(2)
U.S. Postal Service SPRINGFIELD MA 1505294 4/14/2021 35,114 1904.4(a);1904.5(a);OSH ACT of 1970 Section (5)(a)(1)
Alaska Native Tribal Health Consortium ANCHORAGE AR 1500593 4/12/2021 13,653 1910.134(d)(1)(ii)
Ingraham Manor Nursing Home BRISTOL CT 1501945 4/12/2021 8,290 1910.134(e)(1);1910.134(f)(2);1910.134(k)(1)
HILLCREST CARE CENTER, LLC DE SOTO MO 1501717 4/9/2021 13,653 1910.134(e)(1);1910.134(f)(2)
Watseka HCO LLC WATSEKA IL 1507607 4/9/2021 11,091 1910.134(f)(2)
ANDBE HOME, INC. NORTON KS 1500435 4/8/2021 36,864 1904.39(a)(2);1904.4(a);1910.132(d)(1);1910.134(a)(2);1910.134(c)(1);1910.134(d)(1)(ii);1910.134(e)(1);1910.134(f)(2)
Taylor Machine Works, Inc. LOUISVILLE MS 1503679 4/8/2021 1,658 1904.4(a)
Ariana Murrell-Rosario d/b/a Liberty Tax Service LYNN MA 1520204 4/8/2021 136,532 OSH ACT of 1970 Section (5)(a)(1)
Ayden Healthcare WATERVILLE OH 1502804 4/7/2021 13,653 1910.134(c)(3);1910.134(e)(1);1910.134(f)(2)
Life Care Oklahoma, Inc. CHICKASHA OK 1513601 4/7/2021 8,290 1904.39(a)(1)
Gordon Memorial Hospital District GORDON NE 1510935 4/6/2021 9,557 1910.134(e)(1);1910.134(f)(2)
Sunny Acres Nursing Home, Inc. CHELMSFORD MA 1500279 4/5/2021 15,800 1904.29(b)(1);1904.40(a);1910.134(c)(1);1910.134(e)(1);1910.134(f)(2)
Cleveland Christian Home CLEVELAND OH 1500454 4/1/2021 9,557 1910.134(a)(2)
WHITTEMORE COMPANY LAWRENCE MA 1501322 4/1/2021 767 1910.134(k)(6)
CommuniCare Inc. COPLEY OH 1502307 4/1/2021 27,306 1910.134(m)(2)(i)(C)
St. Clair County Maintenance LLC dba Winchester Place Apartments FAIRVIEW HEIGHTS IL 1504464 3/31/2021 4,096 1910.134(c)(1);1910.134(d)(1)(iii);1910.134(e)(1);1910.134(f)(2);1910.134(h)(2)(i);1910.134(k)(1)
LEWIS MEMORIAL CHRISTIAN VILLAGE SPRINGFIELD IL 1507427 3/31/2021 12,288 1910.134(c)(1);1910.134(e)(1);1910.134(f)(2)
Omaha Nursing And Rehabilitation Center, Inc. OMAHA NE 1503014 3/30/2021 9,557 1910.134(e)(1);1910.134(f)(2)
Redwood of Carmel Hills INDEPENDENCE MO 1505298 3/30/2021 12,288 1910.134(c)(1);1910.134(e)(1);1910.134(f)(2)
Community Care Health Network, LLC LEXINGTON NE 1507007 3/30/2021 13,653 1910.134(c)(1);1910.134(e)(1);1910.134(f)(2)
Aleda E. Lutz VA Medical Center SAGINAW MI 1486679 3/29/2021 0 1910.132(a);1910.132(d)(2);1910.134(d)(1)(i)
Associated Specialists, Inc. BRIDGEPORT WV 1507358 3/29/2021 0 1910.1200(e)(1);1910.1200(h)(1);1910.134(k)(6)
Union Railroad Company, LLC DUQUESNE PA 1509538 3/29/2021 1,756 1904.4(a)
Granite Nursing and Rehabilitation Center, LLC GRANITE CITY IL 1502764 3/25/2021 9,557 1910.134(e)(1);1910.134(f)(2)
Oakwood Ventures, LLC TECUMSEH NE 1501737 3/24/2021 9,557 1910.134(c)(1);1910.134(e)(1);1910.134(f)(2)
Saber Healthcare Group LLC CUYAHOGA FALLS OH 1502632 3/24/2021 15,604 1904.4(a);1910.134(c)(1);1910.134(e)(1);1910.134(f)(2)
Tucker House Nursing and Rehabilitation PHILADELPHIA PA 1493091 3/22/2021 12,288 1910.134(e)(1);1910.134(f)(2)
St Joseph Terrace Apts, LLC OMAHA NE 1505102 3/22/2021 9,557 1910.134(e)(1);1910.134(f)(2)
Ryan Health Center, Inc. JOHNSTON RI 1500637 3/18/2021 27,306 1910.134(c)(1);1910.134(e)(1);1910.134(f)(2);OSH ACT of 1970 Section (5)(a)(1)
OhioHealth Rehabilitation Hospital, LLC COLUMBUS OH 1504536 3/18/2021 13,653 1910.134(e)(2)(ii)
Knox Community Hospital MOUNT VERNON OH 1504864 3/16/2021 1,951 1904.4(a)
U.S. Department of Commerce TYLER TX 1492026 3/12/2021 0 1904.4(a);1960.8(a)
Smile Design Osprey Cove LLC LUTZ FL 1499360 3/12/2021 13,653 1910.134(e)(1);1910.134(f)(2);1910.134(k)(3)
Lakeview House, Inc. HAVERHILL MA 1506701 3/11/2021 17,750 1904.39(a)(1);1904.4(a);1910.134(c)(1);1910.134(e)(1);1910.134(f)(2)
KCP Metal Fabrications, Inc. CHICAGO IL 1517695 3/10/2021 7,468 1904.32(b)(6)
The Jewish Home For The Elderly of Fairfield County, Inc. BRIDGEPORT CT 1495500 3/9/2021 15,604 1904.4(a);1910.134(c)(1);1910.134(e)(1);1910.134(f)(2)
the Broken iPhone, LLC MOBILE AL 1494982 3/8/2021 2,926 OSH ACT of 1970 Section (5)(a)(1)
Albany Medical Center Hospital ALBANY NY 1503896 3/8/2021 40,959 1910.134(a)(2);1910.134(g)(1)(iii);1910.134(k)(1)(iv)
REGALCARE AT WEST HAVEN LLC WEST HAVEN CT 1496113 3/3/2021 15,799 1904.4(a);1910.134(a)(2);1910.134(c)(1);1910.134(e)(1);1910.134(f)(2);1910.134(k)(3);1910.134(m)(2)(i)(C);1910.134(m)(2)(i)(E)
Muncie Power Products GAHANNA OH 1504840 3/1/2021 9,753 1904.39(a)(1)
Hilty Memorial Home PANDORA OH 1501746 2/26/2021 9,557 1910.134(c)(1);1910.134(e)(1);1910.134(f)(2)
Indian Health Service/Phoenix Indian Medical Center (PIMC) PHOENIX AZ 1482177 2/25/2021 0 1910.132(d)(1)(i);1910.132(f)(1)(v);1910.134(c)(1);1910.134(d)(1)(ii)
Osceola Regional Hospital, Inc. KISSIMMEE FL 1490003 2/25/2021 13,653 1910.134(c)(1);1910.134(e)(2)(ii)
U.S. Dept of Army FORT BRAGG NC 1489156 2/24/2021 0 1910.134(c)(1);1910.134(f)(2);1910.134(h)(1)
Omni Manor, Inc. COLUMBIANA OH 1490191 2/24/2021 15,604 1904.29(b)(3);1910.134(c)(1);1910.134(e)(1);1910.134(f)(2);1910.134(k)(1)
U.S.A. Healthcare-LTC, L.L.C. CULLMAN AL 1490539 2/24/2021 12,288 1910.134(e)(1);1910.134(f)(2)
Presbyterian Homes of Presbytery of Huntingdon HOLLIDAYSBURG PA 1504542 2/19/2021 10,534 1904.39(a)(1);1904.4(a)
JACC Healthcare Center of Norwich, LLC NORWICH CT 1489125 2/17/2021 13,653 1910.134(c)(1);1910.134(e)(1);1910.134(f)(2);1910.134(g)(1)(i)(A)
Maplewood Opco, LLC AMESBURY MA 1489146 2/17/2021 9,557 1910.134(c)(1);1910.134(e)(1);1910.134(f)(2)
Associated Dental Care, LLC MANCHESTER CT 1488908 2/16/2021 11,118 1910.1030(d)(4)(iv)(A)(2);1910.134(c)(1);1910.134(e)(1);1910.134(f)(2);1910.134(h)(1)
Ridgeview Health Center CROMWELL CT 1489249 2/16/2021 9,753 1904.40(a);1910.134(e)(1)
Noah's Ark Processors, LLC HASTINGS NE 1493043 2/16/2021 13,653 1910.132(d)(2);1910.134(a)(2);1910.134(c)(1);1910.134(e)(1);1910.134(f)(2);1910.134(k)(1)
Peterson Manufacturing GRANDVIEW MO 1493792 2/16/2021 15,604 OSH ACT of 1970 Section (5)(a)(1)
Advanced Center for Nursing & Rehabilitation LLC NEW HAVEN CT 1493108 2/12/2021 1,951 1904.40(a)
Advinity Healthcare Management, LLC CORPUS CHRISTI TX 1493378 2/12/2021 8,192 1910.132(d)(2);1910.134(c)(1);1910.134(e)(1);1910.134(f)(2);1910.134(k)(1)
Crowell Memorial Home BLAIR NE 1494221 2/12/2021 9,557 1910.134(e)(1);1910.134(f)(2)
Elkhorn Valley Packing HARPER KS 1491192 2/11/2021 35,110 1904.39(a)(1);1904.4(a);OSH ACT of 1970 Section (5)(a)(1)
Prime Healthcare Services- St. Mary's Passaic, LLC PASSAIC NJ 1487901 2/10/2021 13,653 1910.134(e)(1);1910.134(f)(2)
Prime Healthcare Services- St. Mary's Passaic, LLC PASSAIC NJ 1498477 2/10/2021 13,653 1910.134(e)(1);1910.134(f)(2)
HERITAGE CARE CENTER OF BERKLEY, LLC. BERKELEY MO 1487416 2/9/2021 9,557 1910.134(c)(1);1910.134(e)(1);1910.134(f)(2);1910.134(k)(3)
Norridge Gardens, LLC NORRIDGE IL 1487942 2/8/2021 15,604 1904.40(a);1910.134(c)(1);1910.134(e)(1);1910.134(f)(2)
St. Vincent's Blount ONEONTA AL 1488540 2/8/2021 0 1910.134(m)(1);1910.134(m)(2)(i)
AJ Aristocrat OPOC, LLC BEREA OH 1506547 2/8/2021 13,653 1910.134(e)(1)
460 Auburn Avenue Associates, L.P. ATLANTA GA 1488341 2/5/2021 8,778 1910.134(c)(1);1910.134(e)(1);1910.134(f)(2)
Highland Park Nursing & Rehab Center, LLC dba Aperion Care Highwood HIGHWOOD IL 1488360 2/5/2021 9,557 1910.134(c)(1);1910.134(e)(1);1910.134(f)(2)
Nexion Health at Grenada, Inc. GRENADA MS 1508030 2/5/2021 23,601 1904.39(a)(1);1904.4(a);1910.134(d)(1)(ii);1910.134(e)(1);1910.134(f)(2)
Jacksonville Health and Rehabilitation, L.L.C. JACKSONVILLE AL 1488185 2/4/2021 13,653 1910.134(e)(1);1910.134(f)(2)
Columbus Center for Human Services, Inc. COLUMBUS OH 1490179 2/4/2021 13,653 1910.134(e)(1)
Family Urgent Care, LLC CHILLICOTHE OH 1492105 2/4/2021 5,461 1910.134(a)(2)
John Adams HealthCare Center, LLC QUINCY MA 1486953 2/3/2021 6,827 1910.134(c)(1);1910.134(e)(1);1910.134(f)(2);1910.134(g)(1)(iii)
Castle Hill Healthcare Providers LLC UNION CITY NJ 1491509 2/3/2021 12,288 1910.134(e)(1)
Mobile Obstetrics & Gynecology, P.C. MOBILE AL 1495885 2/3/2021 9,753 1904.39(a)(1)
Bay Area Healthcare Group, Ltd. CORPUS CHRISTI TX 1489979 1/29/2021 11,703 1910.134(c)(1);1910.134(e)(1);1910.134(f)(2);1910.134(k)(1)
Eden Retirement Center, Inc. dba Eden Village Retirement Community GLEN CARBON IL 1486693 1/28/2021 12,288 1910.134(c)(1);1910.134(e)(1);1910.134(f)(2)
Champaign Residential Services, Inc. LIMA OH 1487912 1/28/2021 13,653 1910.134(a)(2);1910.134(d)(1)(ii)
Stamford Emergency Medical Services, Inc. STAMFORD CT 1488717 1/28/2021 9,557 1910.134(f)(2)
Llanfair House Care and Rehabilitation Center, LLC WAYNE NJ 1493643 1/28/2021 12,288 1910.134(c)(1);1910.134(d)(1)(ii);1910.134(e)(1);1910.134(f)(2);1910.134(k)(1)(i)
Countryside Nursing and Rehabilitation Center, LLC DOLTON IL 1481663 1/27/2021 12,288 1910.134(c)(1);1910.134(e)(1);1910.134(f)(2)
Laureate Southview Operations, LLC. CHICAGO IL 1487861 1/27/2021 12,288 1910.134(c)(1);1910.134(e)(1);1910.134(f)(2);1910.134(k)
THE ESTATES OF PERRYVILLE, LLC PERRYVILLE MO 1497965 1/27/2021 9,557 1910.134(c)(1);1910.134(e)(1);1910.134(f)(2);1910.134(k)(1)
Department of Veterans Affairs, Veterans Health Administration DENVER CO 1473501 1/26/2021 0 1910.134(f)(2)
Omni Manor, Inc. CANFIELD OH 1485565 1/26/2021 13,653 1910.134(c)(1);1910.134(e)(1);1910.134(f)(2);1910.134(k)(1)
Flushing Hospital Medical Center FLUSHING NY 1489594 1/26/2021 0 1910.134(e)(1)
Certus Healthcare NORTH RANDALL OH 1485728 1/25/2021 12,288 1910.134(c)(1);1910.134(d)(1)(ii);1910.134(e)(1);1910.134(f)(2);1910.134(k)(1)
St. Joseph Senior Living LOUISVILLE OH 1486954 1/25/2021 12,288 1910.134(c)(1);1910.134(e)(1);1910.134(f)(2);1910.134(k)(1)
American Medical Personnel, Inc. LOUISVILLE OH 1492290 1/25/2021 9,557 1910.134(c)(1);1910.134(e)(1);1910.134(f)(2);1910.134(k)(3)
Steel Valley Portable X-Ray Service CANTON OH 1492321 1/25/2021 5,461 1910.134(c)(1);1910.134(e)(1);1910.134(f)(2);1910.134(k)(3)
Crossroads Hospice-Palliative LOUISVILLE OH 1492328 1/25/2021 13,653 1910.134(c)(1);1910.134(e)(1);1910.134(f)(2);1910.134(k)(3)
OCal Solutions LOUISVILLE OH 1493029 1/25/2021 9,557 1910.134(c)(1);1910.134(e)(1);1910.134(f)(2);1910.134(k)(3)
Absolute Health Services, Inc. NORTH CANTON OH 1493174 1/25/2021 12,288 1910.134(c)(1);1910.134(e)(1);1910.134(f)(2);1910.134(k)(3)
American Health Associates LOUISVILLE OH 1493833 1/25/2021 13,653 1910.134(c)(1);1910.134(e)(1);1910.134(f)(2);1910.134(k)(3)
Maxim Healthcare Staffing Services, Inc. INDEPENDENCE OH 1501500 1/25/2021 13,653 1910.134(c)(1);1910.134(e)(1);1910.134(f)(2);1910.134(k)(1)
Summit's Trace Healthcare Center COLUMBUS OH 1485983 1/22/2021 13,653 1910.134(c)(1);1910.134(e)(1);1910.134(f)(2)
NYU Langone Hospitals MINEOLA NY 1503533 1/22/2021 1,951 1904.4(a)
Michael E. DeBakey VA Medical Center HOUSTON TX 1482370 1/21/2021 0 1904.4(a);1910.134(e)(1);1910.134(f)(2);1910.134(g)(2)(i);1910.134(m)(2)(i)
Elmhurst Operator LLC PROVIDENCE RI 1484328 1/21/2021 13,653 1910.134(c)(1);1910.134(e)(1);1910.134(f)(2)
Spring River Christian Village, Inc. JOPLIN MO 1485592 1/19/2021 12,288 1910.134(c)(1);1910.134(d)(1)(ii);1910.134(e)(1);1910.134(f)(2)
West Suburban Nursing and Rehabilitation Center, LLC BLOOMINGDALE IL 1492236 1/19/2021 13,653 1910.134(c)(1);1910.134(e)(1)
Healthcare Services Group, Inc. CHICAGO IL 1485835 1/15/2021 13,494 1910.134(c)(1);1910.134(e)(1);1910.134(f)(2);1910.134(k)(1)
BCP Ashland ASHLAND NE 1494169 1/14/2021 9,446 1910.134(e)(1);1910.134(f)(2);1910.134(g)(1)(i)(A)
MARY QUEEN & MOTHER CENTER SAINT LOUIS MO 1483017 1/12/2021 13,494 1910.134(c)(1);1910.134(e)(1);1910.134(f)(2);1910.134(k)(1)
Park View Rehab Center, LLC CHICAGO IL 1483790 1/11/2021 9,446 1910.134(c)(1);1910.134(e)(1);1910.134(f)(2)
South Health and Rehabilitation, L.L.C. BIRMINGHAM AL 1483846 1/8/2021 9,446 1910.134(e)(1);1910.134(f)(2)
Capitol Hill Healthcare, Inc. MONTGOMERY AL 1486227 1/8/2021 12,145 1910.134(e)(1);1910.134(f)(2)
SJ MEDICAL CENTER, LLC HOUSTON TX 1488235 1/8/2021 11,567 1904.39(a)(1);1904.4(a)
Healthcare Services Group, Inc. LUMBER CITY GA 1488945 1/8/2021 15,422 1904.4(a);1910.134(c)(1);1910.134(e)(1);1910.134(f)(2)
LC SNF LLC LUMBER CITY GA 1488990 1/8/2021 10,796 1904.4(a);1910.134(c)(1);1910.134(e)(1);1910.134(f)(2);1910.134(k)(1)(iv)
PSL REHABILITATION AND HEALTHCARE LLC PORT SAINT LUCIE FL 1482915 1/8/2021 12,145 1910.134(c)(1);1910.134(e)(1);1910.134(f)(2)
THE LUTHERAN HOME, INC. WAUWATOSA WI 1484381 12/28/2020 13,494 1910.134(e)(1)
Val Verde Regional Medical Center DEL RIO TX 1485015 12/28/2020 11,567 1904.39(a)(1);1904.4(a)
Geodis COLUMBUS OH 1483526 12/23/2020 13,494 1910.134(c)(1);1910.134(e)(1);1910.134(f)(2)
Luling Care Center LULING TX 1487834 12/23/2020 11,567 1904.39(a)(1);1904.4(a)
Scalabrini Villa, Inc. NORTH KINGSTOWN RI 1488093 12/23/2020 9,446 1910.134(c)(1);1910.134(e)(1);1910.134(f)(2)
Glen Haven Health and Rehabilitation, L.L.C. NORTHPORT AL 1481181 12/22/2020 12,145 1910.134(e)(1);1910.134(f)(2)
BUTTERBALL LLC CARTHAGE MO 1482688 12/22/2020 9,639 1904.39(a)(1)
Sacred Heart Health System PENSACOLA FL 1482790 12/22/2020 0 1910.134(e)(2)(ii)
NF River Chase, LLC QUINCY FL 1489447 12/22/2020 8,675 1910.134(e)(1);1910.134(m)(2)(i)
Alliance Community For Retirement Living DELAND FL 1491196 12/22/2020 12,145 1910.134(e)(1);1910.134(f)(2)
MHM Health Professionals, Inc. BUFORD GA 1480141 12/21/2020 8,675 1910.134(c)(1);1910.134(e)(1);1910.134(f)(2)
Honey Brook Medical Investors Limited Partnership HONEY BROOK PA 1480975 12/21/2020 12,145 1910.134(e)(1);1910.134(f)(2)
Brewster Ambulance Service WEYMOUTH MA 1481452 12/21/2020 12,145 1910.134(c)(1);1910.134(e)(1);1910.134(f)(2)
Corizon Health, Inc. PHILADELPHIA PA 1481681 12/21/2020 13,494 1910.134(f)(2)
Brookwood Management Company, LLC WESTERVILLE OH 1481739 12/21/2020 13,494 1910.134(c)(1);1910.134(e)(1);1910.134(f)(2)
Billings Partners, LLC BILLINGS MT 1482675 12/21/2020 1,928 1904.4(a)
Nogales Produce Inc. DALLAS TX 1486026 12/21/2020 10,410 1904.29(b)(2);1904.39(a)(1);1904.4(a);1904.40(a)
HLTC, INC. DALTON GA 1488181 12/21/2020 12,145 1910.134(e)(1);1910.134(f)(2)
Aveanna Healthcare, LLC HOUSTON TX 1488558 12/21/2020 9,639 1904.39(a)(1)
Majestic Care WHITEHALL OH 1491524 12/21/2020 13,494 1910.134(c)(1);1910.134(e)(1);1910.134(f)(2);1910.134(k)(1)
Altman Specialty Plants, LLC. GIDDINGS TX 1502001 12/21/2020 1,928 1904.4(a)
Luling Nursing Operations, LLC LULING TX 1483627 12/16/2020 11,567 1904.39(a)(1);1904.4(a)
Texstar Enterprises, LLC SCHERTZ TX 1492116 12/16/2020 10,410 1904.39(a)(1);1904.4(a)
Masonic Village at Burlington BURLINGTON NJ 1499773 12/16/2020 13,494 1910.134(c)(1);1910.134(e)(1);1910.134(f)(2)
Diversicare of Riverchase, LLC HOOVER AL 1480137 12/15/2020 13,494 1910.134(e)(1);1910.134(f)(2)
C&S Wholesale Grocers, Inc. WESTFIELD MA 1497460 12/11/2020 1,928 1904.4(a)
Life Care Centers of America Inc. WESTLAKE OH 1478208 12/10/2020 13,494 1910.132(d)(2);1910.134(c)(2)(i);1910.134(e)(1);1910.134(f)(2);1910.134(k)(1)
Melrose Wakefield Healthcare, Inc. MELROSE MA 1478751 12/10/2020 13,494 1910.134(f)(2);1910.134(k)(1)(iv)
Cooper Hatchery, Inc. VAN WERT OH 1480551 12/10/2020 10,603 1910.132(d)(2)
Clearbrook ARLINGTON HEIGHTS IL 1483455 12/10/2020 20,820 1904.39(a)(1);1910.134(c)(1);1910.134(e)(1);1910.134(f)(2);1910.134(k)(1)
Villa Crest Healthcare Center, LLC MANCHESTER NH 1488062 12/10/2020 20,820 1904.39(a)(1);1910.134(c)(1);1910.134(e)(1);1910.134(f)(2)
Crandall Medical Center SEBRING OH 1476308 12/9/2020 12,145 1910.134(c)(1);1910.134(d)(1)(ii);1910.134(e)(1);1910.134(f)(2)
Willowood Care Center of Brunswick, Inc. BRUNSWICK OH 1478348 12/9/2020 12,145 1910.134(c)(1);1910.134(e)(1);1910.134(f)(2);1910.134(k)(1)
Country Lane Gardens THORNVILLE OH 1479898 12/8/2020 9,446 1910.134(c)(1);1910.134(e)(1);1910.134(f)(2)
Hackensack Meridian Jersey Shore University Medical Center NEPTUNE NJ 1480762 12/8/2020 15,422 1904.4(a);1910.134(a)(2)
Community First Healthcare of Illinois, Inc. CHICAGO IL 1477929 12/4/2020 13,494 1910.134(c)(1);1910.134(f)(2)
Medic One Ambulance CARUTHERSVILLE MO 1487763 12/3/2020 6,205 1910.1200(f)(6)(ii)
Briarfield at Ashley Circle AUSTINTOWN OH 1477168 12/3/2020 9,446 1910.134(c)(1);1910.134(e)(1);1910.134(f)(2)
Fairlawn Medical Investors, LLC LEOMINSTER MA 1478369 12/3/2020 13,494 1910.134(c)(1);1910.134(e)(1);1910.134(f)(2)
CoreCivic CONNEAUT OH 1479966 12/3/2020 13,494 1910.134(e)(1);1910.134(f)(2);1910.134(k)(1)
Scioto Community COLUMBUS OH 1485825 12/3/2020 13,494 1910.134(c)(1);1910.134(e)(1);1910.134(f)(2)
Providence Rehabilitation at Mercy Fitzgerald YEADON PA 1476989 12/2/2020 13,494 1910.134(c)(1);1910.134(e)(1);1910.134(f)(2)
JB Kenosha Healthcare, LLC KENOSHA WI 1477215 12/1/2020 12,145 1910.134(e)(1);1910.134(f)(2)
2509 South Fourth Operating, LLC PHILADELPHIA PA 1490507 12/1/2020 12,145 1910.134(c)(1);1910.134(e)(1);1910.134(f)(2)
Temple University Hospital Inc. PHILADELPHIA PA 1476207 11/30/2020 13,494 1910.134(d)(1)(ii);1910.134(f)(2)
FRIENDSHIP SENIOR OPTIONS, NFP SCHAUMBURG IL 1478469 11/25/2020 13,494 1910.134(c)(1);1910.134(e)(1);1910.134(f)(2)
Providence Rest, Inc. BRONX NY 1488827 11/25/2020 13,494 1910.134(e)(1);1910.134(f)(2)
VA New Jersey Healthcare System LYONS NJ 1473961 11/24/2020 0 1910.134(e)(1);1910.134(f)(2)
VA New Jersey Healthcare System LYONS NJ 1474203 11/24/2020 0 1910.134(e)(1);1910.134(f)(2)
Omni Manor, Inc. MASURY OH 1476668 11/24/2020 13,494 1910.134(e)(1);1910.134(f)(2)
Foundation Care Partners, LLC PEARLAND TX 1477040 11/24/2020 12,145 1910.134(c)(1);1910.134(e)(1);1910.134(f)(2);1910.134(g)(2)(i)
The Bay at Nu Roc Health and Rehabilitation Center LLC LAONA WI 1478487 11/24/2020 9,446 1910.134(c)(1);1910.134(e)(1);1910.134(f)(2)
Bureau of Indian Education KYKOTSMOVI VILLAGE AZ 1471541 11/23/2020 0 1904.4(a)
James J. Peters VAMC BRONX NY 1478341 11/23/2020 0 1910.134(e)(1);1910.134(f)(2);1910.134(k)(1)
Elmwood Hills Healthcare Center LLC BLACKWOOD NJ 1482157 11/23/2020 12,145 1910.134(e)(1);1910.134(f)(2)
Meadowbrook Memory Care Community ARLINGTON TX 1478066 11/20/2020 1,928 1904.4(a)
19 Varnum Street Operating Company, LLC. LOWELL MA 1489166 11/20/2020 25,061 1904.39(a)(1);1904.4(a);1910.134(c)(1);1910.134(e)(1)
Compass Group USA, Inc. WASHINGTON DC 1475883 11/19/2020 26,218 1904.39(a)(1);1904.4(a);1910.134(c)(3);1910.134(e)(1);1910.134(f)(2)
Aspen Dental Associates of NEPA, PLLC SCRANTON PA 1475888 11/19/2020 7,374 1910.134(e)(1);1910.134(f)(1);1910.134(f)(2)
Carroll Manor WASHINGTON DC 1478843 11/19/2020 15,422 1904.29(b)(3);1910.134(c)(3);1910.134(e)(1);1910.134(f)(2)
Brighton Rehabilitation and Wellness Center BEAVER PA 1483734 11/19/2020 1,928 1904.4(a)
Westbury Medical Care Home, Inc. JACKSON GA 1475995 11/18/2020 12,145 1910.134(c)(1);1910.134(e)(1)
Care Pavilion Nursing and Rehabilitation Center PHILADELPHIA PA 1494631 11/18/2020 15,133 1904.4(a);1910.134(e)(1)
Ivy Hill Rehab LLC WYNDMOOR PA 1475891 11/17/2020 13,494 1910.134(c)(1);1910.134(e)(1);1910.134(f)(2);1910.134(k)(1)
Poly-America, L.P. GRAND PRAIRIE TX 1479962 11/17/2020 11,567 1904.39(a)(1);1904.4(a)
Poly-America, L.P. GRAND PRAIRIE TX 1481522 11/17/2020 11,567 1904.39(a)(1);1904.4(a)
Connecticut Dental Groups, P.C. WILLIMANTIC CT 1479626 11/16/2020 3,932 1910.134(c)(1);1910.134(e)(1);1910.134(f)(2)
Arnold Walter Nursing Rehabilitation Center HAZLET NJ 1486407 11/16/2020 22,555 1904.39(a)(1);1904.4(a);1910.134(c)(1);1910.134(e)(1);1910.134(f)(2)
Somers Operating LLC SOMERS NY 1479810 11/13/2020 12,145 1910.134(e)(1);1910.134(f)(2)
Hackensack Meridian Health System NORTH BERGEN NJ 1474055 11/12/2020 13,494 1910.134(f)(2);1910.134(k)(1);1910.134(k)(5)
Winthrop South Nassau Catholic Health Services North, Inc. BETHPAGE NY 1475433 11/12/2020 9,639 1904.39(a)(1)
Barber Foods, LLC PORTLAND ME 1477143 11/12/2020 1,928 1904.4(a)
East Neck Nursing & Rehabilitation Center WEST BABYLON NY 1487489 11/12/2020 15,422 1904.4(a);1910.134(e)(1);1910.134(f)(2)
Hackensack Meridian Health Residential Care Inc., The Harborage NORTH BERGEN NJ 1474325 11/10/2020 16,504 1904.35(a)(3);1910.1200(e)(1);1910.1200(h)(1);1910.134(e)(2)(ii);1910.134(f)(2);1910.134(k)(1);1910.134(m)(2)(i)
Long Island Jewish-Forest Hills Hospital FOREST HILLS NY 1478317 11/10/2020 13,494 1910.134(f)(2)
East Longmeadow Management Systems, Inc. EAST LONGMEADOW MA 1487375 11/10/2020 23,133 1904.39(a)(1);1910.132(d)(2);1910.134(a)(2);1910.134(c)(1);1910.134(e)(1);1910.134(f)(2);1910.134(k)(1)
Merrimack Valley Operations, LLC N BILLERICA MA 1487917 11/10/2020 13,494 1910.134(e)(1);1910.134(f)(2);1910.134(k)(1)
True North Urgent Care, LLC STATEN ISLAND NY 1473673 11/9/2020 0 1910.134(e)(1)
The Health Care Authority for Baptist Health, An Affiliate of UAB Health System MONTGOMERY AL 1474605 11/9/2020 0 1910.134(c)(2)(i)
VIRTUA- WEST JERSEY HEALTH SYSTEM, INC. LUMBERTON TOWNSHIP NJ 1474907 11/9/2020 10,603 1904.39(a)(1)
Catholic Health System, Inc KENMORE NY 1475264 11/9/2020 11,567 1904.39(a)(1);1904.4(a)
Life Care Center of Elkhorn ELKHORN NE 1475751 11/9/2020 13,494 1910.134(e)(1);1910.134(f)(2)
Governor's Center RE LLC WESTFIELD MA 1486939 11/9/2020 13,880 1904.4(a);1910.132(d)(2);1910.134(c)(1);1910.134(e)(1);1910.134(f)(2);1910.134(k)(1)
1621 Route 22 West Operating Company, Llc BOUND BROOK NJ 1488065 11/9/2020 9,446 1910.134(c)(1);1910.134(d)(1)(ii);1910.134(e)(1);1910.134(f)(2)
Menorah Home and Hospital for the Aged and Infirm BROOKLYN NY 1488543 11/9/2020 1,082 1910.134(e)(1)
Leisure Park Health Center LAKEWOOD NJ 1494932 11/9/2020 13,881 1904.40(a);1910.134(d)(1)(ii);1910.134(e)(1);1910.134(f)(2)
Anna Rehabilitation and Nursing Center, LLC dba Integrity Healthcare of Anna ANNA IL 1476671 11/6/2020 21,591 1910.134(c)(1);1910.134(e)(1);1910.134(f)(2);1910.134(k)(1);1910.1030(c)(1)(i);1910.1030(g)(2)(i);1910.1200(e)(1);1910.1200(h)(1);1910.132(d)(2)
Hackensack Meridian Health Hospitals Corporation HACKENSACK NJ 1473553 11/6/2020 13,494 1910.134(f)(2);1910.134(k)(1)(iv)
Senior Philanthropy of Milford B, LLC MILFORD CT 1474612 11/6/2020 23,133 1904.40(a);1910.134(e)(1);1910.134(f)(2);1910.1030(c)(1)(i)
Dr. Roberta Bianco D.O.P.C SMITHTOWN NY 1475409 11/6/2020 0 1910.134(c)(1);1910.134(e)(1);1910.134(k)(1)
Oakland Operator LLC OAKLAND NJ 1476994 11/6/2020 12,145 1910.134(c)(1);1910.134(e)(1);1910.134(f)(2);1910.134(k)(1)
Practice Management of America Inc SMITHTOWN NY 1479726 11/6/2020 0 1910.134(c)(1);1910.134(e)(1);1910.134(k)(1)(iv)
Healthcare Services Group, Inc OAKLAND NJ 1480544 11/6/2020 13,494 1910.134(c)(1);1910.134(e)(1);1910.134(f)(2);1910.134(k)(1)
Isabella Geriatric Center NY NY 1481982 11/6/2020 0 1910.134(c)(1);1910.134(m)(1)
Cabrini of Westchester DOBBS FERRY NY 1486784 11/6/2020 13,494 1910.134(e)(1);1910.134(f)(2)
Southwood at Norwell Nursing Center Limited Partnership NORWELL MA 1487115 11/6/2020 17,543 1904.39(a)(1);1904.4(a);1910.134(c)(1);1910.134(e)(1);1910.134(f)(2);1910.134(k)(1)
2020 Route 23 North Operating Company d/b/a Atrium Post-Acute Care of Wayneview WAYNE NJ 1487634 11/6/2020 10,410 1904.39(a)(1);1904.4(a)
Montclair Hospital, LLC MONTCLAIR NJ 1473011 11/5/2020 13,494 1910.134(f)(2)
Butterfield Health Care VIII LLC dba Meadowbrook Manor BOLINGBROOK IL 1474191 11/5/2020 12,145 1910.134(c)(1);1910.134(e)(1);1910.134(f)(2)
South Shore Medical Investors, LLC SCITUATE MA 1478069 11/5/2020 13,494 1910.134(e)(1);1910.134(f)(2)
Cold Spring Hill Acquisition LLC WOODBURY NY 1487532 11/5/2020 25,061 1904.39(a)(1);1904.4(a);1910.134(c)(1);1910.134(e)(1);1910.134(f)(2);1910.134(k)(1)
Hamilton Operator LLC HAMILTON SQUARE NJ 1488528 11/5/2020 13,494 1910.134(e)(1);1910.134(f)(2);1910.134(m)(2)(i)(B);1910.134(m)(2)(i)(E)
THE EDGAR P. BENJAMIN HEALTHCARE CENTER, INC. BOSTON MA 1488985 11/5/2020 16,193 1904.39(a)(1);1910.134(c)(1);1910.134(e)(1);1910.134(f)(2)
VA NY Harbor Healthcare System, St Albans Community Living Center JAMAICA NY 1474970 11/4/2020 0 1910.134(f)(2)
BAYADA Home Health Care, Inc. NY NY 1480129 11/4/2020 8,675 1904.39(a)(1)
Schnur Operations Associates LLC WHITE PLAINS NY 1488554 11/4/2020 12,145 1910.134(c)(1);1910.134(e)(1);1910.134(f)(2)
Hillside Rehabilitation Hospital WARREN OH 1474193 11/3/2020 13,494 1910.134(a)(2);1910.134(c)(1);1910.134(c)(2)(i)
Geneva Nursing and Rehabilitation Center, LLC GENEVA IL 1474458 11/3/2020 13,494 1910.134(c)(1);1910.134(e)(1)
Lawrence + Memorial Hospital, Inc. NEW LONDON CT 1476231 11/3/2020 15,422 1904.4(a);1910.134(c)(1);1910.134(f)(2)
Elmwood Evesham Associates, LLC MARLTON NJ 1487353 11/3/2020 12,145 1910.134(e)(1);1910.134(f)(2)
Athena Health Care Systems WOONSOCKET RI 1487891 11/3/2020 11,567 1904.29(b)(3);1904.39(a)(1)
Rego Park NHLTD FLUSHING NY 1488595 11/3/2020 13,494 1910.134(c)(1);1910.134(e)(1);1910.134(f)(2)
Family of Caring, LLC WOODCLIFF LAKE NJ 1473777 11/2/2020 12,145 1910.134(e)(1);1910.134(f)(2);1910.134(k)(1)
Buffalo General Medical Center BUFFALO NY 1474063 11/2/2020 1,928 1904.4(a)
GRAND MANOR NURSING AND REHABILITATION CENTER SAINT LOUIS MO 1474377 11/2/2020 12,145 1910.134(c)(1);1910.134(e)(1);1910.134(f)(2);1910.134(k)(1)
Waters Edge Healthcare & Rehab Center, LLC. TRENTON NJ 1476010 11/2/2020 12,145 1910.134(c)(1);1910.134(e)(1);1910.134(f)(2)
Prime Healthcare Services - St. Michael's LLC NEWARK NJ 1479171 11/2/2020 25,061 1904.39(a)(1);1904.4(a);1910.134(a)(2);1910.134(e)(2)(ii)
The Cleaning Company, Inc. EAST HAVEN CT 1483403 11/2/2020 6,940 1910.1200(h)(1);1910.132(d)(2);1910.132(f)(1)
Hazlet Garden Group HAZLET NJ 1486252 11/2/2020 13,359 1910.134(c)(1);1910.134(d)(1)(ii);1910.134(e)(1);1910.134(f)(2)
Forest Manor Inc. d/b/a GLEN COVE NY 1487472 11/2/2020 13,494 1910.134(c)(1);1910.134(e)(1);1910.134(f)(2);1910.134(h)(2)(i);1910.134(k)(1)
Boro Park Operating Co, LLC. BROOKLYN NY 1488796 11/2/2020 26,989 1904.39(a)(1);1904.4(a);1904.40(a);1910.134(c)(1);1910.134(e)(1);1910.134(f)(2)
Boro Park Operating Co, LLC. BROOKLYN NY 1488814 11/2/2020 11,567 1904.39(a)(1);1904.4(a)
Amsterdam Nursing Home Corporation NY NY 1475704 10/30/2020 13,494 1910.134(e)(1);1910.134(f)(2)
Mystic Meadows Rehabilitation & Nursing Center LITTLE EGG HARBOR TWP NJ 1486441 10/30/2020 32,965 1904.39(a)(1);1910.134(a)(2);1910.134(e)(1);1910.134(f)(2)
Hackensack Meridian Health Hospitals Corporation HACKENSACK NJ 1472295 10/29/2020 13,494 1910.134(f)(2);1910.134(k)(1)(iv)
Holland Christian Home Association NORTH HALEDON NJ 1473342 10/29/2020 12,145 1910.134(c)(1);1910.134(e)(1);1910.134(f)(2)
Hackensack Meridian Jersey Shore University Medical Center NEPTUNE NJ 1473469 10/29/2020 23,133 1904.35(a)(3);1904.35(b)(2)(iii);1910.132(a);1910.134(e)(7)(i);1910.134(e)(7)(iv);1910.134(f)(2);1910.134(k)(5)(iii)
Ambulnz, Inc. NY NY 1473780 10/29/2020 0 1910.134(c)(1)(ii);1910.134(c)(1)(iii);1910.134(m)(1);1910.134(m)(2)(i)
City View Multicare Center, LLC CICERO IL 1475125 10/29/2020 12,145 1910.134(c)(1);1910.134(e)(1)
Fulton Center for Rehabilitation and Healthcare GLOVERSVILLE NY 1475963 10/29/2020 13,494 1910.134(e)(1);1910.134(f)(2)
735 Putnam Pike Operations LLC GREENVILLE RI 1477127 10/29/2020 15,422 1904.4(a);1910.134(e)(1);1910.134(f)(2);1910.134(k)(1)
American Medical Response BRONX NY 1477156 10/29/2020 9,639 1910.134(f)(2)
HCSG Staff Leasing Solutions LLC BURLINGTON NJ 1481470 10/29/2020 13,494 1910.134(e)(1);1910.134(f)(2);1910.134(k)(3)
Family of Care Healthcare at Montclair, LLC MONTCLAIR NJ 1484158 10/29/2020 12,145 1910.134(d)(1)(ii);1910.134(e)(1);1910.134(f)(2);1910.134(k)(1)
St. Mary's Center for Rehabilitation & Healthcare CHERRY HILL NJ 1486247 10/29/2020 16,193 1904.39(a)(1);1910.134(e)(1);1910.134(f)(2)
Concourse Rehabilitation & Nursing Center BRONX NY 1487171 10/29/2020 9,639 1910.134(e)(1)
Steward Holy Family Hospital, Inc. HAVERHILL MA 1475984 10/28/2020 20,820 1904.39(a)(1);1910.134(d)(1)(i)
Meadowbrook Care Center, Inc. FREEPORT NY 1485043 10/28/2020 12,145 1910.134(e)(1);1910.134(f)(2)
Hackensack Meridian Health Nursing & Rehab - Regent Care Center HACKENSACK NJ 1486544 10/28/2020 13,494 1910.134(d)(1)(ii);1910.134(e)(1);1910.134(f)(2);1910.134(k)(1)
LCB Senior Living, LLC WAYLAND MA 1473461 10/27/2020 13,494 1910.134(c)(1);1910.134(e)(1);1910.134(f)(2)
New Jersey Addiction Treatment Center LLC dba Sunrise House LAFAYETTE NJ 1473911 10/27/2020 26,988 1910.134(a)(2);1910.134(c)(1)
VIRTUA- WEST JERSEY HEALTH SYSTEM, INC. VOORHEES NJ 1473925 10/27/2020 13,494 1910.134(a)(2)
Forty Six Twenty One Corporation Incorporated dba Mado Healthcare - Uptown CHICAGO IL 1474792 10/27/2020 8,675 1904.39(a)(1)
Little Village Nursing and Rehabilitation Center, LLC CHICAGO IL 1477798 10/27/2020 9,446 1910.134(c)(1);1910.134(e)(1);1910.134(f)(2)
Riverside Health Care Center, Inc. EAST HARTFORD CT 1487141 10/27/2020 11,567 1904.39(a)(1);1904.4(a)
East Northport Residential Health Care Facility, Inc. MELVILLE NY 1487374 10/27/2020 0 1910.134(e)(1)
Lakewood Resource and Referral Center, Inc LAKEWOOD NJ 1474345 10/26/2020 13,494 1910.134(c)(1);1910.134(e)(1)
Greenbrook Manor Care & Rehabilitation Center, LLC GREEN BROOK NJ 1493348 10/26/2020 23,133 1904.39(a)(1);1910.134(e)(1);1910.134(f)(2);1910.134(k)(1)
Job Haines Home for Aged People, Inc. BLOOMFIELD NJ 1473237 10/23/2020 12,145 1904.39(a)(1);1910.134(c)(1);1910.134(e)(1);1910.134(f)(2);1910.134(k)(1)
Quality Sausage Company LLC DALLAS TX 1473273 10/23/2020 11,567 1904.39(a)(1);1904.4(a)
150 Riverside Op. LLC NY NY 1473664 10/23/2020 13,494 1910.134(e)(1);1910.134(f)(2)
Marlboro Hills MA SNF LLC MARLBOROUGH MA 1474928 10/23/2020 25,061 1904.39(a)(1);1904.4(a);1910.134(c)(1);1910.134(e)(1);1910.134(f)(2);1910.134(k)(1)
Quality Sausage Company LLC DALLAS TX 1474954 10/23/2020 11,567 1904.39(a)(1);1904.4(a)
Quality Sausage Company LLC DALLAS TX 1475435 10/23/2020 1,928 1904.4(a)
ManorCare Health Services WEST DEPTFORD NJ 1475560 10/23/2020 10,410 1904.39(a)(1);1904.4(a)
Attleboro Medical Investors LLC ATTLEBORO MA 1487954 10/23/2020 24,097 1904.39(a)(1);1910.134(e)(1);1910.134(f)(2);1910.134(k)(1)(iv)
Valley View Rehabilitation & Health Care Center, LLC NEWTON NJ 1493104 10/23/2020 9,446 1910.134(c)(1);1910.134(d)(1)(ii);1910.134(e)(1);1910.134(f)(2);1910.134(k)(1)
Alameda Center for Nursing and Rehabilitation PERTH AMBOY NJ 1494010 10/23/2020 12,145 1910.134(c)(1);1910.134(e)(1);1910.134(f)(2);1910.134(k)(1)
Alameda Center for Nursing and Rehabilitation PERTH AMBOY NJ 1494013 10/23/2020 12,145 1910.134(e)(1);1910.134(f)(2);1910.134(k)(1)
Concerto Renal Services LLC CHICAGO IL 1473120 10/22/2020 12,145 1910.134(c)(1);1910.134(e)(1)
Hallmark Healthcare LLC dba Pine Acres Healthcare & Rehabilitation Center MADISON NJ 1473457 10/22/2020 9,446 1910.134(c)(1);1910.134(e)(1);1910.134(f)(2)
Livingston Care Center LP LIVINGSTON NJ 1476691 10/22/2020 13,494 1910.134(c)(1);1910.134(e)(1);1910.134(f)(2)
Concourse Rehabilitation & Nursing Center, Inc. BRONX NY 1487194 10/22/2020 13,494 1910.134(c)(1);1910.134(d)(1)(ii);1910.134(e)(1);1910.134(f)(2)
Boro Park Operating Co, LLC. BROOKLYN NY 1488787 10/22/2020 1,928 1904.4(a)
Long Island Care Center Inc. FLUSHING NY 1473755 10/21/2020 13,494 1910.134(c)(1);1910.134(e)(1);1910.134(f)(2)
Alden Terrace McHenry MCHENRY IL 1476177 10/21/2020 15,422 1904.4(a);1910.134(c)(1);1910.134(e)(1);1910.134(f)(2)
NEWARK BETH ISRAEL MEDICAL CENTER NEWARK NJ 1476463 10/21/2020 9,639 1904.39(a)(1)
BRONXCARE HEALTH SYSTEM BRONX NY 1477155 10/21/2020 13,494 1910.134(e)(1);1910.134(f)(2)
Green Knoll Care, LLC BRIDGEWATER NJ 1486874 10/21/2020 12,145 1910.134(e)(1);1910.134(f)(2)
Prospect EOGH Inc. dba East Orange General Hospital EAST ORANGE NJ 1472405 10/20/2020 14,576 1910.134(e)(1);1910.134(f)(2);1910.134(k)(1);1910.134(m)(2)
Emergency Physicians Association of North Jersey PC EAST ORANGE NJ 1472996 10/20/2020 12,145 1910.134(c)(1);1910.134(e)(1);1910.134(f)(2);1910.134(k)(1)
The Silvercrest Center for Nursing and Rehabilitation BRIARWOOD NY 1477403 10/20/2020 13,494 1910.134(c)(3);1910.134(e)(1);1910.134(f)(2)
The Silvercrest Center for Nursing and Rehabilitation BRIARWOOD NY 1477406 10/20/2020 23,133 1904.39(a)(1);1910.134(e)(1);1910.134(f)(2);1910.134(k)(1)
Mt. Bethel Management Company, LLC WARREN NJ 1480537 10/20/2020 16,193 1904.39(a)(1);1910.134(c)(1);1910.134(e)(1);1910.134(f)(2)
VIRTUA- WEST JERSEY HEALTH SYSTEM, INC. MOUNT HOLLY NJ 1472976 10/19/2020 13,494 1910.134(a)(2)
Long Island Jewish-Forest Hills Hospital FOREST HILLS NY 1474759 10/19/2020 9,639 1904.39(a)(1)
Innova Gloucester Deptford Bridge Operations LLC DEPTFORD NJ 1486083 10/19/2020 12,145 1910.134(c)(1);1910.134(d)(1)(ii);1910.134(e)(1);1910.134(f)(2)
88 Clark Lane Operating, LLC WATERFORD CT 1487180 10/19/2020 1,475 1904.4(a)
Egg Harbor Care Center, LLC. EGG HARBOR TOWNSHIP NJ 1489006 10/19/2020 22,555 1904.39(a)(1);1904.4(a);1910.134(c)(1);1910.134(e)(1);1910.134(f)(2)
UNILEVER INDEPENDENCE MO 1472257 10/16/2020 1,928 1904.4(a)
ANDOVER SUBACUTE AND REHAB CENTER SERVICES ONE, INC. ANDOVER NJ 1472602 10/16/2020 16,504 1910.1020(e)(1)(i);1910.134(c)(1);1910.134(d)(1)(ii);1910.134(e)(1);1910.134(f)(2);1910.145(f)(8)(i)
Avista Healthcare CHERRY HILL NJ 1472865 10/16/2020 13,880 1904.4(a);1910.134(c)(1);1910.134(e)(1);1910.134(f)(2)
MARYHAVEN CENTER OF HOPE, INC. PORT JEFFERSON STATION NY 1473041 10/16/2020 23,133 1904.39(a)(1);1910.134(c)(1);1910.134(e)(1);1910.134(f)(2)
Aveanna Healthcare MOUNT LAUREL NJ 1473245 10/16/2020 9,639 1904.39(a)(1);1910.134(c)(1)
East Boston Neighborhood Health Center Corporation WINTHROP MA 1474332 10/16/2020 13,494 1910.134(c)(1);1910.134(e)(1);1910.134(f)(2);1910.134(k)(3)
ManorCare Health Services WEST DEPTFORD NJ 1475471 10/16/2020 22,555 1904.39(a)(1);1904.4(a);1910.134(e)(1);1910.134(f)(2)
Hunterdon Care Center FLEMINGTON NJ 1475844 10/16/2020 12,145 1910.134(e)(1);1910.134(f)(2)
Swift Beef Company CACTUS TX 1476485 10/16/2020 1,928 1904.4(a)
Queens Boulevard Extended Care Facility Management LLC FLUSHING NY 1479868 10/16/2020 15,422 1904.4(a);1910.134(c)(2)(i);1910.134(e)(1);1910.134(f)(2)
Care One at Birchwood, LLC EDISON NJ 1481640 10/16/2020 13,494 1910.134(e)(1);1910.134(f)(2)
Emerson Convalescent Center EMERSON NJ 1473663 10/15/2020 20,820 1904.39(a)(1);1910.134(e)(1);1910.134(f)(2)
Sinai Center for Rehabilitation and Healthcare LLC NEWARK NJ 1474225 10/15/2020 23,133 1904.39(a)(1);1910.134(d)(1)(ii);1910.134(e)(1);1910.134(f)(2);1910.134(h)(2)(i);1910.134(k)(1)
Greystone Healthcare Management Corp. NORTHBROOK IL 1474331 10/15/2020 12,145 1910.134(c)(1);1910.134(e)(1);1910.134(f)(2);1910.134(k)(1)(vi)
HUMC OPCO, LLC HOBOKEN NJ 1477121 10/15/2020 13,494 1910.134(f)(2)
CLARK NURSING & REHABILITATION CENTER CLARK NJ 1483652 10/15/2020 12,145 1910.134(c)(1);1910.134(e)(1);1910.134(f)(2);1910.134(k)(1)
HAVEN MANOR HEALTH CARE CENTER LLC FAR ROCKAWAY NY 1486085 10/15/2020 12,145 1910.134(f)(2)
MSAF Group LLC OSSINING NY 1487240 10/15/2020 12,145 1910.134(e)(1);1910.134(f)(2)
Alden-Valley Ridge Rehabilitation and Health Care Center, Inc. BLOOMINGDALE IL 1488820 10/15/2020 13,494 1910.134(c)(1);1910.134(e)(1);1910.134(f)(2)
The Children's Center of Hamden, Inc. HAMDEN CT 1475696 10/14/2020 11,452 1904.4(a);1910.132(d)(2);1910.132(f)(1)
SecureCare Options, LLC ROCKY HILL CT 1476011 10/14/2020 15,422 1904.4(a);1910.134(c)(1);1910.134(d)(1)(i);1910.134(e)(1);1910.134(f)(2)
Gilani Medical Services PC BROOKLYN NY 1476331 10/14/2020 4,048 1910.134(a)(2);1910.134(c)(1)
ANDOVER SUBACUTE AND REHAB CENTER SERVICES ONE, INC. ANDOVER NJ 1472882 10/13/2020 22,555 1904.39(a)(1);1904.4(a);1910.134(c)(1);1910.134(e)(1);1910.134(f)(2)
Trinity Hill Care Center, LLC HARTFORD CT 1474368 10/13/2020 15,422 1904.4(a);1910.134(c)(1);1910.134(e)(1)
LUTHERAN SENIOR SERVICES BALLWIN MO 1472507 10/9/2020 13,494 1910.134(a)(2);1910.134(c)(1);1910.134(e)(1);1910.134(f)(2);1910.134(k)(1)
CONAGRA BRANDS INC. MARSHALL MO 1472729 10/9/2020 2,121 1904.4(a)
Wintonbury Care Center, LLC BLOOMFIELD CT 1472908 10/9/2020 15,422 1904.4(a);1910.134(c)(1);1910.134(d)(1)(i)
JBS Green Bay, Inc. GREEN BAY WI 1472927 10/9/2020 13,494 OSH ACT of 1970 Section (5)(a)(1)
Chelsea Place Care Center, LLC HARTFORD CT 1474336 10/9/2020 15,422 1904.4(a);1910.134(c)(1);1910.134(e)(1);1910.134(f)(2)
GEC Youngstown Management, LLC YOUNGSTOWN OH 1474597 10/9/2020 13,494 1910.134(c)(1);1910.134(e)(1)
Montefiore Medical Center BRONX NY 1475727 10/9/2020 23,133 1904.39(a)(1);1910.134(f)(2)
Hackensack Meridian Medical Group, Primary Care RED BANK NJ 1475842 10/9/2020 13,494 1910.134(f)(2)
St. Joseph's University Medical Center Inc. CEDAR GROVE NJ 1477915 10/9/2020 23,133 1904.39(a)(1);1910.134(e)(1);1910.134(f)(2);1910.134(k)(1)
Atrium Post-Acute Care of Wayneview WAYNE NJ 1487631 10/9/2020 1,735 1904.4(a)
Sapphire HC LLC BRIARCLIFF MANOR NY 1487944 10/9/2020 20,820 1904.39(a)(1);1910.134(c)(1);1910.134(e)(1);1910.134(f)(2)
Care One at Livingston Assisted Living LIVINGSTON NJ 1489564 10/9/2020 11,567 1904.39(a)(1);1904.4(a)
Prime Healthcare Services- St. Mary's Passaic, LLC PASSAIC NJ 1491182 10/9/2020 12,145 1910.134(f)(2)
Jawonio Inc HAVERSTRAW NY 1491587 10/9/2020 13,494 1910.134(c)(1);1910.134(d)(1)(ii);1910.134(e)(1);1910.134(f)(2)
Richmond Medical Center STATEN ISLAND NY 1472429 10/8/2020 9,639 1904.39(a)(1)
The Brooklyn Hospital Center BROOKLYN NY 1473810 10/8/2020 9,639 1904.39(a)(1)
The Buckingham at Norwood Care and Rehabilitation Center LLC NORWOOD NJ 1486490 10/8/2020 12,145 1910.134(c)(1);1910.134(e)(1);1910.134(f)(2)
BAYPOINTE REHAB CENTER, LLC BROCKTON MA 1474378 10/7/2020 12,145 1910.134(e)(1);1910.134(f)(2);1910.134(k)(3)
Leisure Care LLC WOODBRIDGE CT 1474643 10/6/2020 13,494 1910.134(c)(1);1910.134(e)(1);1910.134(k)(3)
Athena Orchard View LLC RIVERSIDE RI 1475461 10/6/2020 15,423 1904.4(a);1910.134(c)(1);1910.134(d)(1)(i);1910.134(e)(1);1910.134(f)(2)
Rogosin Institute Inc. BROOKLYN NY 1475478 10/6/2020 23,133 1904.39(a)(1);1910.134(c)(1);1910.134(d)(1)(ii);1910.134(e)(1);1910.134(f)(2);1910.134(k)(1)
2305 Rancocas Road Operations LLC BURLINGTON NJ 1476211 10/6/2020 15,422 1904.4(a);1910.134(e)(1);1910.134(f)(1);1910.134(f)(2);1910.134(k)(3)
Complete Care at Hamilton LLC PASSAIC NJ 1486510 10/6/2020 22,555 1904.39(a)(1);1904.4(a);1910.134(d)(1)(ii);1910.134(e)(1);1910.134(f)(2);1910.134(k)(1)
Christian Health Care Center WYCKOFF NJ 1473817 10/5/2020 23,133 1904.39(a)(1);1910.134(c)(1);1910.134(e)(1);1910.134(f)(1)
Spring Valley Rest Home LLC NANUET NY 1477903 10/5/2020 6,940 1904.39(a)(1);1910.134(c)(1);1910.134(e)(1);1910.134(f)(2);1910.134(k)(1)
Highland Care Center, Inc. JAMAICA NY 1472064 10/2/2020 23,133 1904.39(a)(1);1910.134(c)(1);1910.134(e)(1);1910.134(f)(2)
Presence Chicago Hospitals Network dba Amita Health Saint Joseph Hospital Chicago CHICAGO IL 1472284 10/2/2020 13,494 1910.132(d)(1)
Braden River Rehabilitation Center, LLC BRADENTON FL 1472723 10/2/2020 8,675 1910.134(c)(1);1910.134(e)(1);1910.134(f)(1)
West Oaks Nursing & Rehabilitation Center AUSTIN TX 1472866 10/2/2020 11,567 1904.39(a)(1);1904.4(a)
Park Avenue Operating Co. LLC LONG BEACH NY 1472939 10/2/2020 22,555 1904.39(a)(1);1904.4(a);1910.134(c)(1);1910.134(e)(1);1910.134(f)(2)
Healthcare Services Group, Inc. BRADENTON FL 1474330 10/2/2020 9,639 1910.134(c)(1);1910.134(e)(1);1910.134(f)(1)
Atlantic Health System, Inc. SUMMIT NJ 1475728 10/2/2020 0 1910.134(k)(6)
Beacon Health Management LLC THOMASTON GA 1475739 10/2/2020 3,856 1910.134(c)(1);1910.134(e)(1);1910.134(f)(2)
Richmond Medical Center STATEN ISLAND NY 1477126 10/2/2020 9,639 1904.39(a)(1)
Clearview Operating Co., LLC WHITESTONE NY 1487378 10/2/2020 12,145 1910.134(c)(1);1910.134(e)(1);1910.134(f)(2)
Clearview Operating Co., LLC WHITESTONE NY 1487383 10/2/2020 22,555 1904.39(a)(1);1904.4(a);1910.134(e)(1);1910.134(f)(2)
Providence SNF Operators LLC THOMASTON GA 1488657 10/2/2020 8,097 1904.4(a);1910.134(c)(1);1910.134(e)(1);1910.134(f)(2)
Prime Healthcare Services - St. Michael's LLC NEWARK NJ 1472330 10/1/2020 25,061 1904.39(a)(1);1904.4(a);1910.134(d)(1)(ii);1910.134(f)(2)
QUEST MANAGEMENT GROUP, INC. TALLAHASSEE FL 1474518 10/1/2020 24,290 1910.132(d)(1);1910.134(a)(2);1910.134(c)(1);1910.134(e)(1);1910.134(f)(1);1910.134(k)(3)
PENSACOLA CARE, INCORPORATED TALLAHASSEE FL 1474819 10/1/2020 11,567 1904.39(a)(1);1904.4(a)
Masonic Village of the Grand Lodge of PA LAFAYETTE HILL PA 1475223 10/1/2020 15,422 1904.4(a);1910.134(c)(1)(iii);1910.134(e)(1);1910.134(f)(2)
Robert Wood Johnson Barnabas Health TOMS RIVER NJ 1475320 10/1/2020 13,494 1910.134(e)(1);1910.134(f)(2)
1515 Lamberts Mill Road Operations, LLC WESTFIELD NJ 1472780 9/30/2020 26,988 1910.134(a)(2);1910.134(e)(1);1910.134(f)(2);1910.134(k)(1)
Hackensack Meridian Health Hospitals Corporation HACKENSACK NJ 1474520 9/30/2020 9,639 1904.39(a)(1)
The Matheny School and Hospital PEAPACK NJ 1476359 9/30/2020 13,494 1910.134(e)(1);1910.134(f)(2);1910.134(k)
IJKG Opco LLC BAYONNE NJ 1477379 9/30/2020 25,061 1904.29(b)(1);1904.33(b)(1);1904.39(a)(1);1910.134(f)(2)
MPV New Jersey MD Medical Services, P.C. NUTLEY NJ 1482167 9/30/2020 23,133 1910.134(c)(1);1910.134(e)(1);1910.134(f)(2)
Northwell Health Orzac Center for Rehabilitation VALLEY STREAM NY 1476726 9/29/2020 23,133 1904.39(a)(1);1910.134(e)(1);1910.134(f)(2);1910.134(h)(2)(i);1910.134(k)(1)
Hudson Pointe Acquisition LLC BRONX NY 1486893 9/29/2020 22,555 1904.39(a)(1);1904.4(a);1910.134(e)(1);1910.134(f)(2)
84 Cold Hill Road Operations LLC MENDHAM NJ 1473525 9/28/2020 13,494 1910.134(e)(1);1910.134(f)(2);1910.134(k)(1)
ALLIANCE HEALTH OF BROCKTON, INC. BROCKTON MA 1474628 9/28/2020 12,145 1910.134(c)(1);1910.134(e)(1);1910.134(f)(2)
Hackensack Meridian Health System NORTH BERGEN NJ 1477909 9/28/2020 13,494 1910.134(f)(2)
292 Applegarth Road Operations LLC MONROE TOWNSHIP NJ 1487345 9/28/2020 23,133 1904.39(a)(1);1910.134(e)(1);1910.134(f)(2)
Hackensack Meridian Health Hospitals Corporation HACKENSACK NJ 1472186 9/25/2020 15,422 1904.40(a);1910.134(f)(2);1910.134(k)(5)(i)
Marion Regional Medical Center, Inc. HAMILTON AL 1472689 9/25/2020 9,290 1904.4(a);1910.134(e)(1)
Essex Residential Care, LLC WEST CALDWELL NJ 1472725 9/25/2020 13,494 1910.134(e)(1);1910.134(f)(2);1910.134(k)(1)
ST. BARNABAS HOSPITAL BRONX NY 1472869 9/25/2020 23,133 1904.39(a)(1);1910.134(f)(2)
ST. BARNABAS HOSPITAL BRONX NY 1473218 9/25/2020 23,133 1904.39(a)(1);1910.134(f)(2)
Alliance Health of Braintree Inc BRAINTREE MA 1473536 9/25/2020 13,880 1904.29(b)(2);1910.134(c)(1);1910.134(e)(1);1910.134(f)(1)
Barnert Subacute Rehabilitation Center, LLC PATERSON NJ 1474902 9/25/2020 13,494 1910.134(c)(1);1910.134(e)(1)
Life Care Center of Nashoba Valley LITTLETON MA 1478339 9/25/2020 21,115 1904.39(a)(1);1904.4(a);1910.134(c)(1);1910.134(e)(1);1910.134(f)(1);1910.134(k)(3)
Clara Maass Medical Center BELLEVILLE NJ 1473231 9/24/2020 23,133 1904.39(a)(1);1910.134(c)(1)(ix)
Clara Maass Medical Center BELLEVILLE NJ 1473262 9/24/2020 23,133 1904.39(a)(1);1910.134(c)(1)(ix)
Crothall Healthcare Inc. LAREDO TX 1473628 9/24/2020 2,121 1904.4(a)
Arbor Management Services, LLC ATLANTA GA 1478813 9/24/2020 13,494 1910.134(c)(1)
2 Deer Park Drive Ops, LLC MONMOUTH JUNCTION NJ 1472170 9/23/2020 13,494 1910.134(e)(1);1910.134(f)(2);1910.134(k)(1)
HMH Residential Care, INC WALL TOWNSHIP NJ 1486211 9/21/2020 13,494 1910.134(f)(2)
Hudson Hospital OpCo LLC dba CarePoint Health Christ Hospital JERSEY CITY NJ 1471979 9/18/2020 15,422 1910.134(e)(1);1910.134(f)(2);1910.134(k)
Jewish Home Lifecare, Home Assistance Personnel, Inc. NY NY 1472332 9/18/2020 13,494 1910.134(c)(1)(ii);1910.134(c)(1)(iii);1910.134(c)(1)(ix);1910.134(e)(1);1910.134(f)(1);1910.134(f)(2)
Bell Medical Transport, LLC ORANGE NJ 1473748 9/18/2020 24,290 1904.4(a);1910.134(d)(1)(ii);1910.134(e)(1);1910.134(f)(2);1910.134(k);1910.1030(f)(1)(i)
NEWARK BETH ISRAEL MEDICAL CENTER NEWARK NJ 1473794 9/18/2020 0 1910.134(e)(1)
Hudson Hospital OpCo LLC dba CarePoint Health Christ Hospital JERSEY CITY NJ 1478460 9/18/2020 21,205 1904.4(a);1910.1200(e)(1);1910.1200(h)(1);1910.134(e)(1);1910.134(f)(2);1910.134(k)(1)
Hackensack Meridian Health System NORTH BERGEN NJ 1483597 9/18/2020 13,494 1910.134(f)(2)
Hackensack Meridian Health System NORTH BERGEN NJ 1473005 9/17/2020 25,061 1904.39(a)(1);1904.4(a);1910.134(e)(1);1910.134(f)(2)
Hackensack Meridian Health, Inc. EDISON NJ 1476526 9/17/2020 25,061 1904.39(a)(1);1904.4(a);1910.134(d)(1)(ii);1910.134(e)(1);1910.134(f)(2)
Brooklyn Queens Nursing Home, Inc. BROOKLYN NY 1472977 9/15/2020 12,145 1910.134(c)(1);1910.134(d)(1)(i);1910.134(e)(1);1910.134(f)(1)
LUIS O. HERRERA M.D. P.C. FREEPORT NY 1483446 9/15/2020 0 1910.134(c)(1);1910.134(e)(1)
Atrium Post-Acute Care of Wayneview WAYNE NJ 1487624 9/14/2020 22,555 1904.39(a)(1);1904.4(a);1910.134(c)(1);1910.134(d)(1)(ii);1910.134(e)(1);1910.134(f)(2);1910.134(k)(1)
Ahava Medical & Rehabilitation Center, LLC BROOKLYN NY 1472872 9/11/2020 8,675 1910.134(c)(1);1910.134(e)(1);1910.134(f)(2);1910.134(k)
JBS Foods, Inc. GREELEY CO 1475131 9/11/2020 15,615 1904.35(b)(2)(iii);OSH ACT of 1970 Section (5)(a)(1)
Care One at Livingston Assisted Living LIVINGSTON NJ 1479867 9/11/2020 13,494 1910.134(e)(1);1910.134(f)(2);1910.134(k)
Joseph P. Addabbo Family Health Center Inc. ARVERNE NY 1475585 9/10/2020 9,639 1910.134(e)(1)
CHRISTUS Shreveport- Bossier Health System- Highland SHREVEPORT LA 1472630 9/9/2020 13,494 1910.132(a)
Smithfield Packaged Meats Corporation SIOUX FALLS SD 1472736 9/9/2020 13,494 OSH ACT of 1970 Section (5)(a)(1)
Department of Veteran Affairs INDIANAPOLIS IN 1472413 9/8/2020 0 1910.132(d)(1);1910.134(d)(1)(i)
Department of Veteran Affairs INDIANAPOLIS IN 1472527 9/8/2020 0 1910.132(d)(1);1910.134(d)(1)(i)
Valley Physician Services Inc. WALDWICK NJ 1472609 9/8/2020 9,639 1904.39(a)(1)
Department of Veteran Affairs INDIANAPOLIS IN 1472721 9/8/2020 0 1910.132(d)(1);1910.134(d)(1)(i)
Care Plus Bergen, Inc. PARAMUS NJ 1472923 9/8/2020 9,639 1910.134(f)(2);1910.134(k)(1)(i)
SOUTH MOUNTAIN HEALTHCARE & REHABILITATION CENTER VAUXHALL NJ 1475843 9/8/2020 0 1910.134(c)(1)
Natchaug Hospital, Inc. MANSFIELD CENTER CT 1476019 9/8/2020 13,494 1904.4(a);1910.134(c)(1);1910.134(d)(1)(i)
Massapequa Center LLC AMITYVILLE NY 1476213 9/4/2020 13,494 1910.134(c)(1);1910.134(e)(1);1910.134(f)(2)
Hackensack Meridian Health Residential Care Inc., The Harborage NORTH BERGEN NJ 1476465 9/4/2020 28,070 1910.134(a)(2);1910.134(e)(2)(ii);1910.134(f)(2);1910.134(k)(1);1910.134(m)(2)(i)
Valley Hospital Inc. RIDGEWOOD NJ 1472607 9/3/2020 8,675 1910.134(f)(2)
Mission Care of Illinois, LLC d/b/a Abbott EMS BELLEVILLE IL 1472412 8/28/2020 24,215 1910.134(e)(1);1910.134(f)(2);1910.134(f)(5);1910.1030(c)(1)(iv);1910.1030(f)(3);1910.1030(f)(3)(i);1910.1030(f)(3)(ii);1910.1030(h)(5)(i);1910.120(q)(6)(i);1910.120(q)(8)(i);1910.1200(e)(1)(i);1910.1200(g)(8);1910.157(g)(4)
Georgetown Dental GEORGETOWN MA 1479181 8/20/2020 24,569 1910.134(c)(1);1910.134(e)(1);1910.134(f)(2);1910.134(k)(1);1910.1030(c)(1)(i);1910.1030(d)(4)(iii)(A)(2)(i);1910.1030(g)(2)(ii)(A);1910.1200(e)(1);1910.1200(h)(1);1910.151(c)
OHNH EMP, LLC SALEM OH 1472885 7/13/2020 13,494 1910.134(c)(1);1910.134(e)(1)
OHNH EMP, LLC AKRON OH 1472894 7/13/2020 13,494 1910.134(c)(1);1910.134(e)(1)
OHNH EMP, LLC SALEM OH 1475615 7/13/2020 13,494 1910.134(c)(1);1910.134(e)(1)

The source of the information in the IMIS is the local federal or state office in the geographical area where the activity occurred. Information is entered as events occur in the course of agency activities. Until cases are closed, IMIS entries concerning specific OSHA inspections are subject to continuing correction and updating, particularly with regard to citation items, which are subject to modification by amended citations, settlement agreements, or as a result of contest proceedings. THE USER SHOULD ALSO BE AWARE THAT DIFFERENT COMPANIES MAY HAVE SIMILAR NAMES AND CLOSE ATTENTION TO THE ADDRESS MAY BE NECESSARY TO AVOID MISINTERPRETATION.

PART 1926—SAFETY AND HEALTH REGULATIONS FOR CONSTRUCTION


Subpart A-General

Sec.
1926.1    Purpose and scope.
1926.2    Variances from safety and health standards.
1926.3    Inspections-right of entry.
1926.4    Rules of practice for administrative adjudications for enforcement of safety and health standards.
1926.5    OMB control numbers under the Paperwork Reduction Act.
1926.6    Incorporation by reference.

Subpart B-General Interpretations

1926.10    Scope of subpart.
1926.11    Coverage under section 103 of the act distinguished.
1926.12    Reorganization Plan No. 14 of 1950.
1926.13    Interpretation of statutory terms.
1926.14    Federal contract for "mixed" types of performance.
1926.15    Relationship to the Service Contract Act; Walsh-Healey Public Contracts Act.
1926.16    Rules of construction.

Subpart C-General Safety and Health Provisions

1926.20    General safety and health provisions.
1926.21    Safety training and education.
1926.22    Recording and reporting of injuries. [Reserved]
1926.23    First aid and medical attention.
1926.24    Fire protection and prevention.
1926.25    Housekeeping.
1926.26    Illumination.
1926.27    Sanitation.
1926.28    Personal protective equipment.
1926.29    Acceptable certifications.
1926.30    Shipbuilding and ship repairing.
1926.32    Definitions.
1926.33    Access to employee exposure and medical records.
1926.34    Means of egress.
1926.35    Employee emergency action plans.

Subpart D-Occupational Health and Environmental Controls

1926.50    Medical services and first aid.
1926.51    Sanitation.
1926.52    Occupational noise exposure.
1926.53    Ionizing radiation.
1926.54    Nonionizing radiation.
1926.55    Gases, vapors, fumes, dusts, and mists.
1926.56    Illumination.
1926.57    Ventilation.
1926.58    [Reserved]
1926.59    Hazard communication.
1926.60    Methylenedianiline.
1926.61    Retention of DOT markings, placards and labels.
1926.62    Lead.
1926.64    Process safety management of highly hazardous chemicals.
1926.65    Hazardous waste operations and emergency response.
1926.66    Criteria for design and construction of spray booths.

Subpart E-Personal Protective and Life Saving Equipment

1926.95    Criteria for personal protective equipment.
1926.96    Occupational foot protection.
1926.97    Electrical protective equipment.
1926.98    [Reserved]
1926.100    Head protection.
1926.101    Hearing protection.
1926.102    Eye and face protection.
1926.103    Respiratory protection.
1926.104    Safety belts, lifelines, and lanyards.
1926.105    Safety nets.
1926.106    Working over or near water.
1926.107    Definitions applicable to this subpart.

Subpart F-Fire Protection and Prevention

1926.150    Fire protection.
1926.151    Fire prevention.
1926.152    Flammable liquids.
1926.153    Liquefied petroleum gas (LP-Gas).
1926.154    Temporary heating devices.
1926.155    Definitions applicable to this subpart.

Subpart G-Signs, Signals, and Barricades

1926.200    Accident prevention signs and tags.
1926.201    Signaling.
1926.202    Removed.
1926.203    Removed.

Subpart H-Materials Handling, Storage, Use, and Disposal

1926.250    General requirements for storage.
1926.251    Rigging equipment for material handling.
1926.252    Disposal of waste materials.

Subpart I-Tools-Hand and Power

1926.300    General requirements.
1926.301    Hand tools.
1926.302    Power-operated hand tools.
1926.303    Abrasive wheels and tools.
1926.304    Woodworking tools.
1926.305    Jacks-lever and ratchet, screw, and hydraulic.
1926.306    Air receivers.
1926.307    Mechanical power-transmission apparatus.

Subpart J-Welding and Cutting

1926.350    Gas welding and cutting.
1926.351    Arc welding and cutting.
1926.352    Fire prevention.
1926.353    Ventilation and protection in welding, cutting, and heating.
1926.354    Welding, cutting, and heating in way of preservative coatings.

Subpart K-Electrical

General

1926.400    Introduction.
1926.401    [Reserved]

Installation Safety Requirements

1926.402    Applicability.
1926.403    General requirements.
1926.404    Wiring design and protection.
1926.405    Wiring methods, components, and equipment for general use.
1926.406    Specific purpose equipment and installations.
1926.407    Hazardous (classified) locations.
1926.408    Special systems.
1926.409-1926.415    [Reserved]

Safety-Related Work Practices

1926.416    General requirements.
1926.417    Lockout and tagging of circuits.
1926.418-1926.430    [Reserved]

Safety-Related Maintenance and Environmental Considerations

1926.431    Maintenance of equipment.
1926.432    Environmental deterioration of equipment.
1926.433-1926.440    [Reserved]

Safety Requirements for Special Equipment

1926.441    Batteries and battery charging.
1926.442-1926.448    [Reserved]

Definitions

1926.449    Definitions applicable to this subpart.

Subpart L-Scaffolds

1926.450    Scope, application and definitions applicable to this subpart.
1926.451    General requirements.
1926.452    Additional requirements applicable to specific types of scaffolds.
1926.453    Aerial lifts.
1926.454    Training requirements.

(Non-mandatory) Appendix A to Subpart L of Part 1926-Scaffold Specifications
(Non-mandatory) Appendix B to Subpart L of Part 1926-Criteria for Determining the Feasibility of Providing Safe Access and Fall Protection for Scaffold Erectors and Dismantlers [Reserved]
(Non-mandatory) Appendix C to Subpart L of Part 1926-List of National Consensus Standards
(Non-mandatory) Appendix D to Subpart L of Part 1926-List of Training Topics for Scaffold Erectors and Dismantlers
(Non-mandatory) Appendix E to Subpart L of Part 1926-Drawings and Illustrations

Subpart M-Fall Protection

1926.500    Scope, application, and definitions applicable to this subpart.
1926.501    Duty to have fall protection.
1926.502    Fall protection systems criteria and practices.
1926.503    Training requirements.

Appendix A to Subpart M of Part 1926-Determining Roof Widths
Appendix B to Subpart M of Part 1926-Guardrail Systems
Appendix C to Subpart M of Part 1926-Personal Fall Arrest Systems
Appendix D to Subpart M of Part 1926-Positioning Device Systems
Appendix E to Subpart M of Part 1926-Sample Fall Protection Plan

Subpart N-Helicopters, Hoists, Elevators, and Conveyors

1926.550    [Reserved]
1926.551    Helicopters.
1926.552    Material hoists, personnel hoists, and elevators.
1926.553    Base-mounted drum hoists.
1926.554    Overhead hoists.
1926.555    Conveyors.

Subpart O-Motor Vehicles, Mechanized Equipment, and Marine Operations

1926.600    Equipment.
1926.601    Motor vehicles.
1926.602    Material handling equipment.
1926.603    Pile driving equipment.
1926.604    Site clearing.
1926.605    Marine operations and equipment.
1926.606    Definitions applicable to this subpart.

Subpart P-Excavations

1926.650    Scope, application, and definitions applicable to this subpart.
1926.651    Specific excavation requirements.
1926.652    Requirements for protective systems.

Appendix A to Subpart P of Part 1926-Soil Classification
Appendix B to Subpart P of Part 1926-Sloping and Benching
Appendix C to Subpart P of Part 1926-Timber Shoring for Trenches
Appendix D to Subpart P of Part 1926-Aluminum Hydraulic Shoring for Trenches
Appendix E to Subpart P of Part 1926-Alternatives to Timber Shoring
Appendix F to Subpart P of Part 1926-Selection of Protective Systems

Subpart Q-Concrete and Masonry Construction

1926.700    Scope, application, and definitions applicable to this subpart.
1926.701    General requirements.
1926.702    Requirements for equipment and tools.
1926.703    Requirements for cast-in-place concrete.
1926.704    Requirements for precast concrete.
1926.705    Requirements for lift-slab construction operations.
1926.706    Requirements for masonry construction.

Appendix A to Subpart Q of Part 1926-References to subpart Q of Part 1926

Subpart R-Steel Erection

1926.750    Scope.
1926.751    Definitions.
1926.752    Site layout, site-specific erection plan and construction sequence.
1926.753    Hoisting and rigging.
1926.754    Structural steel assembly.
1926.755    Column anchorage.
1926.756    Beams and columns.
1926.757    Open web steel joists.
1926.758    Systems-engineered metal buildings.
1926.759    Falling object protection.
1926.760    Fall protection.
1926.761    Training.

Appendix A to Subpart R of Part 1926-Guidelines for Establishing the Components of a Site-specific Erection Plan: Non-mandatory Guidelines for Complying With §1926.752(e)
Appendix B to Subpart R of Part 1926 [Reserved]
Appendix C to Subpart R of Part 1926-Illustrations of Bridging Terminus Points: Non-mandatory Guidelines for Complying With §§1926.757(a)(10) and §1926.757(c)(5)
Appendix D to Subpart R of Part 1926-Illustration of the Use of Control Lines To Demarcate Controlled Decking Zones (CDZs): Non-mandatory Guidelines for Complying With §1926.760(c)(3)
Appendix E to Subpart R of Part 1926-Training: Non-mandatory Guidelines for Complying With §1926.761
Appendix F to Subpart R of Part 1926-Perimeter Columns: Non-Mandatory Guidelines for Complying With §1926.756(e) To Protect the Unprotected Side or Edge of a Walking/Working Surface
Appendix G to Subpart R of Part 1926-§1926.502 (b)-(e) Fall Protection Systems Criteria and Practices
Appendix H to Subpart R of Part 1926-Double Connections: Illustration of a Clipped End Connection and a Staggered Connection: Non-Mandatory Guidelines for Complying With §1926.756(c)(1)

Subpart S-Underground Construction, Caissons, Cofferdams and Compressed Air

1926.800    Underground construction.
1926.801    Caissons.
1926.802    Cofferdams.
1926.803    Compressed air.
1926.804    Definitions applicable to this subpart.

Appendix A to Subpart S of Part 1926-Decompression Tables

Subpart T-Demolition

1926.850    Preparatory operations.
1926.851    Stairs, passageways, and ladders.
1926.852    Chutes.
1926.853    Removal of materials through floor openings.
1926.854    Removal of walls, masonry sections, and chimneys.
1926.855    Manual removal of floors.
1926.856    Removal of walls, floors, and material with equipment.
1926.857    Storage.
1926.858    Removal of steel construction.
1926.859    Mechanical demolition.
1926.860    Selective demolition by explosives.

Subpart U-Blasting and the Use of Explosives

1926.900    General provisions.
1926.901    Blaster qualifications.
1926.902    Surface transportation of explosives.
1926.903    Underground transportation of explosives.
1926.904    Storage of explosives and blasting agents.
1926.905    Loading of explosives or blasting agents.
1926.906    Initiation of explosive charges-electric blasting.
1926.907    Use of safety fuse.
1926.908    Use of detonating cord.
1926.909    Firing the blast.
1926.910    Inspection after blasting.
1926.911    Misfires.
1926.912    Underwater blasting.
1926.913    Blasting in excavation work under compressed air.
1926.914    Definitions applicable to this subpart.

Subpart V-Electric Power Transmission and Distribution

1926.950    General.
1926.951    Medical services and first aid.
1926.952    Job briefing.
1926.953    Enclosed spaces.
1926.954    Personal protective equipment.
1926.955    Portable ladders and platforms.
1926.956    Hand and portable power equipment.
1926.957    Live-line tools.
1926.958    Materials handling and storage.
1926.959    Mechanical equipment.
1926.960    Working on or near exposed energized parts.
1926.961    Deenergizing lines and equipment for employee protection.
1926.962    Grounding for the protection of employees.
1926.963    Testing and test facilities.
1926.964    Overhead lines and live-line barehand work.
1926.965    Underground electrical installations.
1926.966    Substations.
1926.967    Special conditions.
1926.968    Definitions.

Appendix A to Subpart V of Part 1926 [Reserved]
Appendix B to Subpart V of Part 1926-Working on Exposed Energized Parts
Appendix C to Subpart V of Part 1926-Protection From Hazardous Differences in Electric Potential
Appendix D to Subpart V of Part 1926-Methods of Inspecting and Testing Wood Poles
Appendix E to Subpart V of Part 1926-Protection From Flames and Electric Arcs
Appendix F to Subpart V of Part 1926-Work-Positioning Equipment Inspection Guidelines
Appendix G to Subpart V of Part 1926-Reference Documents

Subpart W-Rollover Protective Structures; Overhead Protection

1926.1000    Rollover protective structures (ROPS) for material handling equipment.
1926.1001    Minimum performance criteria for rollover protective structures for designated scrapers, loaders, dozers, graders, and crawler tractors.
1926.1002    Protective frames (roll-over protective structures, known as ROPS) for wheel-type agricultural and industrial tractors used in construction.
1926.1003    Overhead protection for operators of agricultural and industrial tractors used in construction.

Appendix A to Subpart W of Part 1926-Figures W-14 through W-28

Subpart X-Stairways and Ladders

1926.1050    Scope, application, and definitions applicable to this subpart.
1926.1051    General requirements.
1926.1052    Stairways.
1926.1053    Ladders.
1926.1054-1926.1059    [Reserved]
1926.1060    Training requirements.

Appendix A to Subpart X of Part 1926-Ladders

Subpart Y-Diving

General

1926.1071    Scope and application.
1926.1072    Definitions.
Personnel Requirements

1926.1076    Qualifications of dive team.
General Operations Procedures

1926.1080    Safe practices manual.
1926.1081    Pre-dive procedures.
1926.1082    Procedures during dive.
1926.1083    Post-dive procedures.

Specific Operations Procedures

1926.1084    SCUBA diving.
1926.1085    Surface-supplied air diving.
1926.1086    Mixed-gas diving.
1926.1087    Liveboating.

Equipment Procedures and Requirements

1926.1090    Equipment.

Recordkeeping

1926.1091    Recordkeeping requirements.

Appendix A to Subpart Y of Part 1926-Examples of Conditions Which May Restrict or Limit Exposure to Hyperbaric Conditions
Appendix B to Subpart Y of Part 1926-Guidelines for Scientific Diving

Subpart Z-Toxic and Hazardous Substances

1926.1100    [Reserved]
1926.1101    Asbestos.
1926.1102    Coal tar pitch volatiles; interpretation of term.
1926.1103    13 carcinogens (4-Nitrobiphenyl, etc.).
1926.1104    alpha-Naphthylamine.
1926.1105    [Reserved]
1926.1106    Methyl chloromethyl ether.
1926.1107    3,3'-Dichlorobenzidiene (and its salts).
1926.1108    bis-Chloromethyl ether.
1926.1109    beta-Naphthylamine.
1926.1110    Benzidine.
1926.1111    4-Aminodiphenyl.
1926.1112    Ethyleneimine.
1926.1113    beta-Propiolactone.
1926.1114    2-Acetylaminofluorene.
1926.1115    4-Dimethylaminoazobenzene.
1926.1116    N-Nitrosodimethylamine.
1926.1117    Vinyl chloride.
1926.1118    Inorganic arsenic.
1926.1126    Chromium (VI).
1926.1127    Cadmium.
1926.1128    Benzene.
1926.1129    Coke oven emissions.
1926.1144    1,2-dibromo-3-chloropropane.
1926.1145    Acrylonitrile.
1926.1147    Ethylene oxide.
1926.1148    Formaldehyde.
1926.1152    Methylene chloride.
1926.1153    Respirable crystalline silica.

Subpart AA-Confined Spaces in Construction

1926.1200    [Reserved]
1926.1201    Scope.
1926.1202    Definitions.
1926.1203    General requirements.
1926.1204    Permit-required confined space program.
1926.1205    Permitting process.
1926.1206    Entry permit.
1926.1207    Training.
1926.1208    Duties of authorized entrants.
1926.1209    Duties of attendants.
1926.1210    Duties of entry supervisors.
1926.1211    Rescue and emergency services.
1926.1212    Employee participation.
1926.1213    Provision of documents to Secretary.

Subpart BB [Reserved]

Subpart CC-Cranes and Derricks in Construction

1926.1400    Scope.
1926.1401    Definitions.
1926.1402    Ground conditions.
1926.1403    Assembly/Disassembly—selection of manufacturer or employer procedures.
1926.1404    Assembly/Disassembly—general requirements (applies to all assembly and disassembly operations).
1926.1405    Disassembly—additional requirements for dismantling of booms and jibs (applies to both the use of manufacturer procedures and employer procedures).
1926.1406    Assembly/Disassembly—employer procedures-general requirements.
1926.1407    Power line safety (up to 350 kV)—assembly and disassembly.
1926.1408    Power line safety (up to 350 kV)—equipment operations.
1926.1409    Power line safety (over 350 kV).
1926.1410    Power line safety (all voltages)—equipment operations closer than the Table A zone.
1926.1411    Power line safety—while traveling.
1926.1412    Inspections.
1926.1413    Wire rope—inspection.
1926.1414    Wire rope—selection and installation criteria.
1926.1415    Safety devices.
1926.1416    Operational aids.
1926.1417    Operation.
1926.1418    Authority to stop operation.
1926.1419    Signals—general requirements.
1926.1420    Signals—radio, telephone or other electronic transmission of signals.
1926.1421    Signals—voice signals—additional requirements.
1926.1422    Signals—hand signal chart.
1926.1423    Fall protection.
1926.1424    Work area control.
1926.1425    Keeping clear of the load.
1926.1426    Free fall and controlled load lowering.
1926.1427    Operator training, certification, and evaluation.
1926.1428    Signal person qualifications.
1926.1429    Qualifications of maintenance & repair employees.
1926.1430    Training.
1926.1431    Hoisting personnel.
1926.1432    Multiple-crane/derrick lifts—supplemental requirements.
1926.1433    Design, construction and testing.
1926.1434    Equipment modifications.
1926.1435    Tower cranes.
1926.1436    Derricks.
1926.1437    Floating cranes/derricks and land cranes/derricks on barges.
1926.1438    Overhead & gantry cranes.
1926.1439    Dedicated pile drivers.
1926.1440    Sideboom cranes.
1926.1441    Equipment with a rated hoisting/lifting capacity of 2,000 pounds or less.
1926.1442    Severability.

Appendix A to Subpart CC of Part 1926-Standard Hand Signals
Appendix B to Subpart CC of Part 1926-Assembly/Disassembly—Sample Procedures for Minimizing the Risk of Unintended Dangerous Boom Movement
Appendix C to Subpart CC of Part 1926-Operator Certification—Written Examination—Technical Knowledge Criteria
Appendix A to Part 1926-Designations for General Industry Standards Incorporated Into Body of Construction Standards


SOURCE: 44 FR 8577, Feb. 9, 1979; 44 FR 20940, Apr. 6, 1979, unless otherwise noted.

EDITORIAL NOTES: 1. At 44 FR 8577, Feb. 9, 1979, and corrected at 44 FR 20940, Apr. 6, 1979, OSHA reprinted without change the entire text of 29 CFR part 1926 together with certain General Industry Occupational Safety and Health Standards contained in 29 CFR part 1910, which have been identified as also applicable to construction work. This republication developed a single set of OSHA regulations for both labor and management forces within the construction industry.

2. Nomenclature changes to part 1926 appear at 84 FR 21597, May 14, 2019.